Wetterdaten: Montag, 09.03.2020
Datum Zeit Temp. Aussen Temp. o. S. Temp +5cm Feuchte Auss Luftdruck Regen Sonnenschein Regendauer Solar Windben Empfang
09.03.2020 00:00 7,1 C 6,1 C 5,6 C 96 % 1009,4 hPa 0,0 l/m 0 min 0 min 0 W/m 19,3 km/h (3 Bft) 97,87 %
09.03.2020 00:02 7,1 C 6,1 C 5,6 C 96 % 1009,3 hPa 0,0 l/m 0 min 0 min 0 W/m 6,4 km/h (2 Bft) 92,86 %
09.03.2020 00:04 7,1 C 6,1 C 5,6 C 96 % 1009,3 hPa 0,0 l/m 0 min 0 min 0 W/m 3,2 km/h (1 Bft) 92,00 %
09.03.2020 00:08 7,1 C 6,1 C 5,6 C 96 % 1009,4 hPa 0,0 l/m 0 min 0 min 0 W/m 19,3 km/h (3 Bft) 95,74 %
09.03.2020 00:10 7,1 C 6,1 C 5,6 C 96 % 1009,4 hPa 0,0 l/m 0 min 0 min 0 W/m 0,0 km/h (0 Bft) 95,74 %
09.03.2020 00:12 7,1 C 6,1 C 5,6 C 96 % 1009,4 hPa 0,0 l/m 0 min 0 min 0 W/m 6,4 km/h (2 Bft) 95,74 %
09.03.2020 00:14 7,1 C 6,1 C 5,6 C 96 % 1009,4 hPa 0,0 l/m 0 min 0 min 0 W/m 6,4 km/h (2 Bft) 95,74 %
09.03.2020 00:16 7,1 C 6,1 C 5,6 C 96 % 1009,4 hPa 0,0 l/m 0 min 0 min 0 W/m 12,9 km/h (3 Bft) 93,48 %
09.03.2020 00:18 7,1 C 6,1 C 5,6 C 96 % 1009,4 hPa 0,0 l/m 0 min 0 min 0 W/m 6,4 km/h (2 Bft) 95,74 %
09.03.2020 00:20 7,1 C 6,1 C 5,6 C 96 % 1009,4 hPa 0,0 l/m 0 min 0 min 0 W/m 16,1 km/h (3 Bft) 95,74 %
09.03.2020 00:22 7,1 C 6,1 C 5,6 C 96 % 1009,5 hPa 0,0 l/m 0 min 0 min 0 W/m 6,4 km/h (2 Bft) 93,62 %
09.03.2020 00:24 7,1 C 6,1 C 5,6 C 96 % 1009,5 hPa 0,0 l/m 0 min 0 min 0 W/m 0,0 km/h (0 Bft) 97,87 %
09.03.2020 00:26 7,1 C 6,1 C 5,6 C 96 % 1009,4 hPa 0,0 l/m 0 min 0 min 0 W/m 0,0 km/h (0 Bft) 97,83 %
09.03.2020 00:28 7,0 C 6,1 C 5,0 C 96 % 1009,5 hPa 0,0 l/m 0 min 0 min 0 W/m 0,0 km/h (0 Bft) 97,87 %
09.03.2020 00:30 7,0 C 6,1 C 5,0 C 96 % 1009,4 hPa 0,0 l/m 0 min 0 min 0 W/m 0,0 km/h (0 Bft) 97,87 %
09.03.2020 00:32 7,0 C 5,6 C 5,0 C 96 % 1009,5 hPa 0,0 l/m 0 min 0 min 0 W/m 0,0 km/h (0 Bft) 97,87 %
09.03.2020 00:34 7,0 C 6,1 C 5,0 C 96 % 1009,5 hPa 0,0 l/m 0 min 0 min 0 W/m 0,0 km/h (0 Bft) 97,87 %
09.03.2020 00:36 7,0 C 5,6 C 5,0 C 96 % 1009,4 hPa 0,0 l/m 0 min 0 min 0 W/m 0,0 km/h (0 Bft) 97,87 %
09.03.2020 00:38 7,0 C 5,6 C 5,0 C 95 % 1009,4 hPa 0,0 l/m 0 min 0 min 0 W/m 0,0 km/h (0 Bft) 95,65 %
09.03.2020 00:40 7,0 C 5,6 C 5,0 C 95 % 1009,4 hPa 0,0 l/m 0 min 0 min 0 W/m 6,4 km/h (2 Bft) 95,74 %
09.03.2020 00:42 6,9 C 6,1 C 5,0 C 95 % 1009,4 hPa 0,0 l/m 0 min 0 min 0 W/m 22,5 km/h (4 Bft) 97,87 %
09.03.2020 00:44 6,9 C 6,1 C 5,0 C 95 % 1009,4 hPa 0,0 l/m 0 min 0 min 0 W/m 6,4 km/h (2 Bft) 97,87 %
09.03.2020 00:46 6,9 C 6,1 C 5,0 C 95 % 1009,4 hPa 0,0 l/m 0 min 0 min 0 W/m 3,2 km/h (1 Bft) 97,87 %
09.03.2020 00:48 6,9 C 6,1 C 5,0 C 95 % 1009,4 hPa 0,0 l/m 0 min 0 min 0 W/m 3,2 km/h (1 Bft) 97,87 %
09.03.2020 00:50 6,9 C 6,1 C 5,0 C 95 % 1009,3 hPa 0,0 l/m 0 min 0 min 0 W/m 0,0 km/h (0 Bft) 100,00 %
09.03.2020 00:52 6,9 C 6,1 C 5,0 C 95 % 1009,3 hPa 0,0 l/m 0 min 0 min 0 W/m 0,0 km/h (0 Bft) 97,87 %
09.03.2020 00:54 6,9 C 6,1 C 5,0 C 95 % 1009,3 hPa 0,0 l/m 0 min 0 min 0 W/m 16,1 km/h (3 Bft) 100,00 %
09.03.2020 00:56 6,9 C 6,1 C 5,0 C 95 % 1009,4 hPa 0,0 l/m 0 min 0 min 0 W/m 3,2 km/h (1 Bft) 100,00 %
09.03.2020 00:58 6,9 C 6,1 C 5,0 C 95 % 1009,4 hPa 0,0 l/m 0 min 0 min 0 W/m 12,9 km/h (3 Bft) 63,83 %
09.03.2020 01:00 6,9 C 5,6 C 5,0 C 95 % 1009,4 hPa 0,0 l/m 0 min 0 min 0 W/m 6,4 km/h (2 Bft) 91,11 %
09.03.2020 01:02 6,9 C 6,1 C 5,0 C 95 % 1009,4 hPa 0,0 l/m 0 min 0 min 0 W/m 12,9 km/h (3 Bft) 100,00 %
09.03.2020 01:04 6,8 C 6,1 C 5,0 C 95 % 1009,4 hPa 0,0 l/m 0 min 0 min 0 W/m 6,4 km/h (2 Bft) 100,00 %
09.03.2020 01:06 6,8 C 6,1 C 5,0 C 95 % 1009,4 hPa 0,0 l/m 0 min 0 min 0 W/m 6,4 km/h (2 Bft) 97,87 %
09.03.2020 01:08 6,8 C 5,6 C 5,0 C 95 % 1009,4 hPa 0,0 l/m 0 min 0 min 0 W/m 3,2 km/h (1 Bft) 100,00 %
09.03.2020 01:10 6,8 C 6,1 C 5,0 C 95 % 1009,4 hPa 0,0 l/m 0 min 0 min 0 W/m 6,4 km/h (2 Bft) 100,00 %
09.03.2020 01:12 6,8 C 6,1 C 5,0 C 95 % 1009,4 hPa 0,0 l/m 0 min 0 min 0 W/m 19,3 km/h (3 Bft) 100,00 %
09.03.2020 01:14 6,8 C 6,1 C 5,0 C 95 % 1009,4 hPa 0,0 l/m 0 min 0 min 0 W/m 19,3 km/h (3 Bft) 100,00 %
09.03.2020 01:16 6,8 C 6,1 C 5,0 C 95 % 1009,5 hPa 0,0 l/m 0 min 0 min 0 W/m 12,9 km/h (3 Bft) 100,00 %
09.03.2020 01:18 6,8 C 6,1 C 5,0 C 95 % 1009,5 hPa 0,0 l/m 0 min 0 min 0 W/m 3,2 km/h (1 Bft) 97,87 %
09.03.2020 01:20 6,8 C 6,1 C 5,0 C 95 % 1009,5 hPa 0,0 l/m 0 min 0 min 0 W/m 6,4 km/h (2 Bft) 100,00 %
09.03.2020 01:22 6,7 C 6,1 C 5,0 C 95 % 1009,5 hPa 0,0 l/m 0 min 0 min 0 W/m 16,1 km/h (3 Bft) 95,65 %
09.03.2020 01:24 6,7 C 6,1 C 5,0 C 95 % 1009,5 hPa 0,0 l/m 0 min 0 min 0 W/m 6,4 km/h (2 Bft) 100,00 %
09.03.2020 01:26 6,7 C 6,1 C 5,0 C 95 % 1009,5 hPa 0,0 l/m 0 min 0 min 0 W/m 6,4 km/h (2 Bft) 100,00 %
09.03.2020 01:28 6,7 C 6,1 C 5,0 C 95 % 1009,5 hPa 0,0 l/m 0 min 0 min 0 W/m 6,4 km/h (2 Bft) 100,00 %
09.03.2020 01:30 6,7 C 6,1 C 5,0 C 95 % 1009,5 hPa 0,0 l/m 0 min 0 min 0 W/m 19,3 km/h (3 Bft) 100,00 %
09.03.2020 01:32 6,7 C 6,1 C 5,0 C 95 % 1009,5 hPa 0,0 l/m 0 min 0 min 0 W/m 12,9 km/h (3 Bft) 100,00 %
09.03.2020 01:34 6,7 C 6,1 C 5,0 C 95 % 1009,6 hPa 0,0 l/m 0 min 0 min 0 W/m 6,4 km/h (2 Bft) 97,92 %
09.03.2020 01:36 6,7 C 6,1 C 5,0 C 95 % 1009,6 hPa 0,0 l/m 0 min 0 min 0 W/m 3,2 km/h (1 Bft) 97,83 %
09.03.2020 01:38 6,7 C 6,1 C 5,0 C 95 % 1009,7 hPa 0,0 l/m 0 min 0 min 0 W/m 3,2 km/h (1 Bft) 97,87 %
09.03.2020 01:40 6,7 C 6,1 C 5,0 C 95 % 1009,6 hPa 0,0 l/m 0 min 0 min 0 W/m 12,9 km/h (3 Bft) 95,74 %
09.03.2020 01:42 6,7 C 6,1 C 5,0 C 95 % 1009,6 hPa 0,0 l/m 0 min 0 min 0 W/m 12,9 km/h (3 Bft) 97,87 %
09.03.2020 01:44 6,7 C 6,1 C 5,0 C 95 % 1009,6 hPa 0,0 l/m 0 min 0 min 0 W/m 6,4 km/h (2 Bft) 97,87 %
09.03.2020 01:46 6,7 C 6,1 C 5,0 C 95 % 1009,6 hPa 0,0 l/m 0 min 0 min 0 W/m 0,0 km/h (0 Bft) 97,87 %
09.03.2020 01:48 6,7 C 6,1 C 5,0 C 95 % 1009,6 hPa 0,0 l/m 0 min 0 min 0 W/m 12,9 km/h (3 Bft) 97,83 %
09.03.2020 01:50 6,7 C 6,1 C 5,0 C 95 % 1009,6 hPa 0,0 l/m 0 min 0 min 0 W/m 0,0 km/h (0 Bft) 97,87 %
09.03.2020 01:52 6,7 C 6,1 C 5,0 C 95 % 1009,7 hPa 0,0 l/m 0 min 0 min 0 W/m 6,4 km/h (2 Bft) 95,74 %
09.03.2020 01:54 6,7 C 6,1 C 5,0 C 95 % 1009,6 hPa 0,0 l/m 0 min 0 min 0 W/m 19,3 km/h (3 Bft) 97,87 %
09.03.2020 01:56 6,7 C 6,1 C 5,0 C 95 % 1009,5 hPa 0,0 l/m 0 min 0 min 0 W/m 12,9 km/h (3 Bft) 97,87 %
09.03.2020 01:58 6,7 C 6,1 C 5,0 C 95 % 1009,6 hPa 0,0 l/m 0 min 0 min 0 W/m 12,9 km/h (3 Bft) 95,74 %
09.03.2020 02:00 6,7 C 6,1 C 5,0 C 95 % 1009,6 hPa 0,0 l/m 0 min 0 min 0 W/m 0,0 km/h (0 Bft) 97,83 %
09.03.2020 02:02 6,7 C 6,1 C 5,0 C 95 % 1009,6 hPa 0,0 l/m 0 min 0 min 0 W/m 0,0 km/h (0 Bft) 95,74 %
09.03.2020 02:04 6,8 C 6,1 C 5,0 C 95 % 1009,5 hPa 0,0 l/m 0 min 0 min 0 W/m 0,0 km/h (0 Bft) 97,87 %
09.03.2020 02:06 6,8 C 6,1 C 5,0 C 95 % 1009,6 hPa 0,0 l/m 0 min 0 min 0 W/m 0,0 km/h (0 Bft) 97,87 %
09.03.2020 02:08 6,8 C 6,1 C 5,0 C 95 % 1009,6 hPa 0,0 l/m 0 min 0 min 0 W/m 3,2 km/h (1 Bft) 95,74 %
09.03.2020 02:10 6,8 C 6,1 C 5,0 C 95 % 1009,6 hPa 0,0 l/m 0 min 0 min 0 W/m 9,7 km/h (2 Bft) 95,74 %
09.03.2020 02:12 6,8 C 6,1 C 5,0 C 95 % 1009,7 hPa 0,0 l/m 0 min 0 min 0 W/m 3,2 km/h (1 Bft) 95,12 %
09.03.2020 02:14 6,8 C 6,1 C 5,0 C 95 % 1009,6 hPa 0,0 l/m 0 min 0 min 0 W/m 3,2 km/h (1 Bft) 93,75 %
09.03.2020 02:16 6,8 C 6,1 C 5,0 C 95 % 1009,6 hPa 0,0 l/m 0 min 0 min 0 W/m 0,0 km/h (0 Bft) 95,83 %
09.03.2020 02:18 6,8 C 6,1 C 5,0 C 95 % 1009,6 hPa 0,0 l/m 0 min 0 min 0 W/m 19,3 km/h (3 Bft) 95,74 %
09.03.2020 02:20 6,8 C 6,1 C 5,0 C 95 % 1009,5 hPa 0,0 l/m 0 min 0 min 0 W/m 12,9 km/h (3 Bft) 93,48 %
09.03.2020 02:22 6,8 C 6,1 C 5,0 C 95 % 1009,5 hPa 0,0 l/m 0 min 0 min 0 W/m 22,5 km/h (4 Bft) 95,74 %
09.03.2020 02:24 6,8 C 6,1 C 5,0 C 95 % 1009,5 hPa 0,0 l/m 0 min 0 min 0 W/m 16,1 km/h (3 Bft) 95,83 %
09.03.2020 02:26 6,8 C 6,1 C 5,0 C 95 % 1009,5 hPa 0,0 l/m 0 min 0 min 0 W/m 12,9 km/h (3 Bft) 97,87 %
09.03.2020 02:28 6,8 C 6,1 C 5,0 C 95 % 1009,5 hPa 0,0 l/m 0 min 0 min 0 W/m 19,3 km/h (3 Bft) 95,74 %
09.03.2020 02:30 6,8 C 6,1 C 5,0 C 95 % 1009,5 hPa 0,0 l/m 0 min 0 min 0 W/m 3,2 km/h (1 Bft) 97,87 %
09.03.2020 02:32 6,8 C 6,1 C 5,0 C 95 % 1009,5 hPa 0,0 l/m 0 min 0 min 0 W/m 12,9 km/h (3 Bft) 95,65 %
09.03.2020 02:34 6,9 C 6,1 C 5,0 C 95 % 1009,5 hPa 0,0 l/m 0 min 0 min 0 W/m 12,9 km/h (3 Bft) 95,83 %
09.03.2020 02:36 6,9 C 6,1 C 5,6 C 95 % 1009,5 hPa 0,0 l/m 0 min 0 min 0 W/m 12,9 km/h (3 Bft) 97,92 %
09.03.2020 02:38 6,9 C 6,1 C 5,6 C 95 % 1009,5 hPa 0,0 l/m 0 min 0 min 0 W/m 29,0 km/h (5 Bft) 97,87 %
09.03.2020 02:40 6,9 C 6,1 C 5,6 C 95 % 1009,5 hPa 0,0 l/m 0 min 0 min 0 W/m 16,1 km/h (3 Bft) 95,74 %
09.03.2020 02:42 6,9 C 6,1 C 5,6 C 95 % 1009,5 hPa 0,0 l/m 0 min 0 min 0 W/m 6,4 km/h (2 Bft) 97,87 %
09.03.2020 02:44 6,9 C 6,7 C 5,6 C 95 % 1009,4 hPa 0,0 l/m 0 min 0 min 0 W/m 22,5 km/h (4 Bft) 95,74 %
09.03.2020 02:46 6,9 C 6,1 C 5,6 C 95 % 1009,5 hPa 0,0 l/m 0 min 0 min 0 W/m 12,9 km/h (3 Bft) 97,83 %
09.03.2020 02:48 6,9 C 6,1 C 5,6 C 95 % 1009,4 hPa 0,0 l/m 0 min 0 min 0 W/m 16,1 km/h (3 Bft) 93,62 %
09.03.2020 02:50 6,9 C 6,1 C 5,6 C 95 % 1009,4 hPa 0,0 l/m 0 min 0 min 0 W/m 16,1 km/h (3 Bft) 95,74 %
09.03.2020 02:52 6,9 C 6,1 C 5,6 C 95 % 1009,4 hPa 0,0 l/m 0 min 0 min 0 W/m 12,9 km/h (3 Bft) 97,87 %
09.03.2020 02:54 6,9 C 6,1 C 5,6 C 95 % 1009,4 hPa 0,0 l/m 0 min 0 min 0 W/m 12,9 km/h (3 Bft) 97,87 %
09.03.2020 02:56 6,9 C 6,1 C 5,6 C 95 % 1009,4 hPa 0,0 l/m 0 min 0 min 0 W/m 16,1 km/h (3 Bft) 97,87 %
09.03.2020 02:58 6,9 C 6,1 C 5,6 C 95 % 1009,4 hPa 0,0 l/m 0 min 0 min 0 W/m 12,9 km/h (3 Bft) 97,67 %
09.03.2020 03:00 6,9 C 6,1 C 5,6 C 95 % 1009,5 hPa 0,0 l/m 0 min 0 min 0 W/m 16,1 km/h (3 Bft) 95,83 %
09.03.2020 03:02 6,9 C 6,1 C 5,6 C 95 % 1009,4 hPa 0,0 l/m 0 min 0 min 0 W/m 19,3 km/h (3 Bft) 97,96 %
09.03.2020 03:04 6,9 C 6,1 C 5,6 C 95 % 1009,3 hPa 0,0 l/m 0 min 0 min 0 W/m 22,5 km/h (4 Bft) 97,87 %
09.03.2020 03:06 6,9 C 6,1 C 5,6 C 94 % 1009,5 hPa 0,0 l/m 0 min 0 min 0 W/m 25,7 km/h (4 Bft) 95,74 %
09.03.2020 03:08 6,9 C 6,1 C 5,6 C 95 % 1009,5 hPa 0,0 l/m 0 min 0 min 0 W/m 12,9 km/h (3 Bft) 97,87 %
09.03.2020 03:10 6,9 C 6,1 C 5,6 C 95 % 1009,5 hPa 0,0 l/m 0 min 0 min 0 W/m 16,1 km/h (3 Bft) 97,83 %
09.03.2020 03:12 6,9 C 6,1 C 5,6 C 95 % 1009,5 hPa 0,0 l/m 0 min 0 min 0 W/m 12,9 km/h (3 Bft) 97,87 %
09.03.2020 03:14 6,9 C 6,1 C 5,6 C 95 % 1009,5 hPa 0,0 l/m 0 min 0 min 0 W/m 6,4 km/h (2 Bft) 97,87 %
09.03.2020 03:16 6,9 C 6,1 C 5,6 C 95 % 1009,5 hPa 0,0 l/m 0 min 0 min 0 W/m 6,4 km/h (2 Bft) 95,74 %
09.03.2020 03:18 6,9 C 6,1 C 5,6 C 95 % 1009,5 hPa 0,0 l/m 0 min 0 min 0 W/m 16,1 km/h (3 Bft) 97,87 %
09.03.2020 03:20 6,9 C 6,1 C 5,6 C 95 % 1009,4 hPa 0,0 l/m 0 min 0 min 0 W/m 25,7 km/h (4 Bft) 97,56 %
09.03.2020 03:22 6,9 C 6,1 C 5,6 C 95 % 1009,5 hPa 0,0 l/m 0 min 0 min 0 W/m 16,1 km/h (3 Bft) 97,92 %
09.03.2020 03:24 6,9 C 6,1 C 5,6 C 95 % 1009,5 hPa 0,0 l/m 0 min 0 min 0 W/m 19,3 km/h (3 Bft) 97,92 %
09.03.2020 03:26 6,9 C 6,1 C 5,6 C 95 % 1009,5 hPa 0,0 l/m 0 min 0 min 0 W/m 0,0 km/h (0 Bft) 95,74 %
09.03.2020 03:28 6,9 C 6,1 C 5,6 C 95 % 1009,5 hPa 0,0 l/m 0 min 0 min 0 W/m 9,7 km/h (2 Bft) 97,87 %
09.03.2020 03:30 6,9 C 6,1 C 5,6 C 95 % 1009,6 hPa 0,0 l/m 0 min 0 min 0 W/m 12,9 km/h (3 Bft) 97,56 %
09.03.2020 03:32 6,9 C 6,1 C 5,6 C 94 % 1009,5 hPa 0,0 l/m 0 min 0 min 0 W/m 16,1 km/h (3 Bft) 98,00 %
09.03.2020 03:34 6,9 C 6,1 C 5,6 C 94 % 1009,6 hPa 0,0 l/m 0 min 0 min 0 W/m 16,1 km/h (3 Bft) 97,96 %
09.03.2020 03:36 6,9 C 6,1 C 5,6 C 94 % 1009,6 hPa 0,0 l/m 0 min 0 min 0 W/m 6,4 km/h (2 Bft) 100,00 %
09.03.2020 03:38 6,9 C 6,1 C 5,6 C 94 % 1009,6 hPa 0,0 l/m 0 min 0 min 0 W/m 16,1 km/h (3 Bft) 93,62 %
09.03.2020 03:40 6,9 C 6,1 C 5,6 C 94 % 1009,6 hPa 0,0 l/m 0 min 0 min 0 W/m 6,4 km/h (2 Bft) 59,09 %
09.03.2020 03:42 6,9 C 6,1 C 5,6 C 94 % 1009,6 hPa 0,0 l/m 0 min 0 min 0 W/m 12,9 km/h (3 Bft) 100,00 %
09.03.2020 03:44 6,9 C 6,1 C 5,6 C 94 % 1009,6 hPa 0,0 l/m 0 min 0 min 0 W/m 16,1 km/h (3 Bft) 100,00 %
09.03.2020 03:46 6,9 C 6,1 C 5,6 C 94 % 1009,6 hPa 0,0 l/m 0 min 0 min 0 W/m 12,9 km/h (3 Bft) 100,00 %
09.03.2020 03:48 6,9 C 6,1 C 5,6 C 95 % 1009,5 hPa 0,0 l/m 0 min 0 min 0 W/m 12,9 km/h (3 Bft) 98,00 %
09.03.2020 03:50 6,9 C 6,1 C 5,6 C 94 % 1009,5 hPa 0,0 l/m 0 min 0 min 0 W/m 16,1 km/h (3 Bft) 100,00 %
09.03.2020 03:52 6,9 C 6,1 C 5,6 C 94 % 1009,5 hPa 0,0 l/m 0 min 0 min 0 W/m 12,9 km/h (3 Bft) 100,00 %
09.03.2020 03:54 6,9 C 6,1 C 5,6 C 94 % 1009,7 hPa 0,0 l/m 0 min 0 min 0 W/m 16,1 km/h (3 Bft) 100,00 %
09.03.2020 03:56 6,9 C 6,1 C 5,6 C 94 % 1009,7 hPa 0,0 l/m 0 min 0 min 0 W/m 12,9 km/h (3 Bft) 97,37 %
09.03.2020 03:58 6,9 C 6,1 C 5,6 C 95 % 1009,7 hPa 0,0 l/m 0 min 0 min 0 W/m 22,5 km/h (4 Bft) 97,83 %
09.03.2020 04:00 6,9 C 6,1 C 5,6 C 95 % 1009,7 hPa 0,0 l/m 0 min 0 min 0 W/m 12,9 km/h (3 Bft) 100,00 %
09.03.2020 04:02 6,9 C 6,1 C 5,6 C 95 % 1009,7 hPa 0,0 l/m 0 min 0 min 0 W/m 12,9 km/h (3 Bft) 100,00 %
09.03.2020 04:04 6,9 C 6,1 C 5,6 C 95 % 1009,7 hPa 0,0 l/m 0 min 0 min 0 W/m 0,0 km/h (0 Bft) 95,74 %
09.03.2020 04:06 6,9 C 6,1 C 5,6 C 94 % 1009,7 hPa 0,0 l/m 0 min 0 min 0 W/m 0,0 km/h (0 Bft) 100,00 %
09.03.2020 04:08 6,9 C 6,1 C 5,6 C 94 % 1009,7 hPa 0,0 l/m 0 min 0 min 0 W/m 6,4 km/h (2 Bft) 100,00 %
09.03.2020 04:10 6,8 C 6,1 C 5,6 C 94 % 1009,7 hPa 0,0 l/m 0 min 0 min 0 W/m 19,3 km/h (3 Bft) 100,00 %
09.03.2020 04:12 6,9 C 6,1 C 5,6 C 94 % 1009,6 hPa 0,0 l/m 0 min 0 min 0 W/m 9,7 km/h (2 Bft) 100,00 %
09.03.2020 04:14 6,8 C 6,1 C 5,6 C 94 % 1009,6 hPa 0,0 l/m 0 min 0 min 0 W/m 6,4 km/h (2 Bft) 100,00 %
09.03.2020 04:16 6,8 C 6,1 C 5,6 C 94 % 1009,7 hPa 0,0 l/m 0 min 0 min 0 W/m 16,1 km/h (3 Bft) 100,00 %
09.03.2020 04:18 6,8 C 6,1 C 5,6 C 94 % 1009,7 hPa 0,0 l/m 0 min 0 min 0 W/m 12,9 km/h (3 Bft) 100,00 %
09.03.2020 04:20 6,8 C 6,1 C 5,6 C 94 % 1009,7 hPa 0,0 l/m 0 min 0 min 0 W/m 3,2 km/h (1 Bft) 100,00 %
09.03.2020 04:22 6,8 C 6,1 C 5,6 C 94 % 1009,7 hPa 0,0 l/m 0 min 0 min 0 W/m 6,4 km/h (2 Bft) 100,00 %
09.03.2020 04:24 6,8 C 6,1 C 5,6 C 94 % 1009,7 hPa 0,0 l/m 0 min 0 min 0 W/m 16,1 km/h (3 Bft) 100,00 %
09.03.2020 04:26 6,8 C 6,1 C 5,6 C 94 % 1009,7 hPa 0,0 l/m 0 min 0 min 0 W/m 12,9 km/h (3 Bft) 97,92 %
09.03.2020 04:28 6,8 C 6,1 C 5,6 C 94 % 1009,8 hPa 0,0 l/m 0 min 0 min 0 W/m 6,4 km/h (2 Bft) 97,87 %
09.03.2020 04:30 6,8 C 6,1 C 5,6 C 94 % 1009,8 hPa 0,0 l/m 0 min 0 min 0 W/m 16,1 km/h (3 Bft) 100,00 %
09.03.2020 04:32 6,8 C 6,1 C 5,6 C 94 % 1009,8 hPa 0,0 l/m 0 min 0 min 0 W/m 6,4 km/h (2 Bft) 100,00 %
09.03.2020 04:34 6,8 C 6,1 C 5,6 C 95 % 1009,8 hPa 0,0 l/m 0 min 0 min 0 W/m 0,0 km/h (0 Bft) 100,00 %
09.03.2020 04:36 6,8 C 6,1 C 5,6 C 95 % 1009,8 hPa 0,0 l/m 0 min 0 min 0 W/m 0,0 km/h (0 Bft) 97,96 %
09.03.2020 04:38 6,8 C 6,1 C 5,6 C 95 % 1009,7 hPa 0,0 l/m 0 min 0 min 0 W/m 0,0 km/h (0 Bft) 97,92 %
09.03.2020 04:40 6,8 C 6,1 C 5,6 C 95 % 1009,7 hPa 0,0 l/m 0 min 0 min 0 W/m 16,1 km/h (3 Bft) 100,00 %
09.03.2020 04:42 6,8 C 6,1 C 5,6 C 95 % 1009,7 hPa 0,0 l/m 0 min 0 min 0 W/m 12,9 km/h (3 Bft) 98,11 %
09.03.2020 04:44 6,8 C 6,1 C 5,6 C 95 % 1009,7 hPa 0,0 l/m 0 min 0 min 0 W/m 6,4 km/h (2 Bft) 97,44 %
09.03.2020 04:46 6,8 C 6,1 C 5,6 C 95 % 1009,7 hPa 0,0 l/m 0 min 0 min 0 W/m 9,7 km/h (2 Bft) 97,96 %
09.03.2020 04:48 6,8 C 6,1 C 5,6 C 95 % 1009,8 hPa 0,0 l/m 0 min 0 min 0 W/m 6,4 km/h (2 Bft) 96,00 %
09.03.2020 04:50 6,8 C 6,1 C 5,6 C 95 % 1009,9 hPa 0,0 l/m 0 min 0 min 0 W/m 12,9 km/h (3 Bft) 97,87 %
09.03.2020 04:52 6,8 C 6,1 C 5,6 C 95 % 1009,8 hPa 0,0 l/m 0 min 0 min 0 W/m 6,4 km/h (2 Bft) 97,30 %
09.03.2020 04:54 6,8 C 6,1 C 5,6 C 95 % 1009,9 hPa 0,0 l/m 0 min 0 min 0 W/m 6,4 km/h (2 Bft) 100,00 %
09.03.2020 04:56 6,8 C 6,1 C 5,6 C 95 % 1009,9 hPa 0,0 l/m 0 min 0 min 0 W/m 19,3 km/h (3 Bft) 97,56 %
09.03.2020 04:58 6,8 C 6,1 C 5,6 C 95 % 1009,9 hPa 0,0 l/m 0 min 0 min 0 W/m 12,9 km/h (3 Bft) 94,00 %
09.03.2020 05:00 6,8 C 6,1 C 5,6 C 95 % 1010,0 hPa 0,0 l/m 0 min 0 min 0 W/m 16,1 km/h (3 Bft) 97,92 %
09.03.2020 05:02 6,8 C 6,1 C 5,6 C 95 % 1010,0 hPa 0,0 l/m 0 min 0 min 0 W/m 6,4 km/h (2 Bft) 51,16 %
09.03.2020 05:04 6,8 C 6,1 C 5,6 C 95 % 1010,0 hPa 0,0 l/m 0 min 0 min 0 W/m 12,9 km/h (3 Bft) 97,96 %
09.03.2020 05:06 6,8 C 6,1 C 5,6 C 95 % 1010,0 hPa 0,0 l/m 0 min 0 min 0 W/m 12,9 km/h (3 Bft) 93,62 %
09.03.2020 05:08 6,8 C 6,1 C 5,6 C 95 % 1010,1 hPa 0,0 l/m 0 min 0 min 0 W/m 16,1 km/h (3 Bft) 97,62 %
09.03.2020 05:10 6,8 C 6,1 C 5,6 C 95 % 1010,1 hPa 0,0 l/m 0 min 0 min 0 W/m 6,4 km/h (2 Bft) 93,62 %
09.03.2020 05:12 6,8 C 6,1 C 5,6 C 95 % 1010,1 hPa 0,0 l/m 0 min 0 min 0 W/m 6,4 km/h (2 Bft) 95,74 %
09.03.2020 05:14 6,8 C 6,1 C 5,6 C 95 % 1010,1 hPa 0,0 l/m 0 min 0 min 0 W/m 12,9 km/h (3 Bft) 95,74 %
09.03.2020 05:16 6,8 C 6,1 C 5,6 C 95 % 1010,1 hPa 0,0 l/m 0 min 0 min 0 W/m 12,9 km/h (3 Bft) 94,00 %
09.03.2020 05:18 6,8 C 6,1 C 5,6 C 94 % 1010,1 hPa 0,0 l/m 0 min 0 min 0 W/m 12,9 km/h (3 Bft) 95,92 %
09.03.2020 05:20 6,8 C 6,1 C 5,6 C 94 % 1010,1 hPa 0,0 l/m 0 min 0 min 0 W/m 12,9 km/h (3 Bft) 97,87 %
09.03.2020 05:22 6,8 C 6,1 C 5,6 C 94 % 1010,1 hPa 0,0 l/m 0 min 0 min 0 W/m 12,9 km/h (3 Bft) 97,56 %
09.03.2020 05:24 6,8 C 6,1 C 5,6 C 94 % 1010,1 hPa 0,0 l/m 0 min 0 min 0 W/m 6,4 km/h (2 Bft) 98,00 %
09.03.2020 05:26 6,8 C 6,1 C 5,6 C 94 % 1010,1 hPa 0,0 l/m 0 min 0 min 0 W/m 6,4 km/h (2 Bft) 97,87 %
09.03.2020 05:28 6,8 C 6,1 C 5,6 C 94 % 1010,1 hPa 0,0 l/m 0 min 0 min 0 W/m 19,3 km/h (3 Bft) 98,00 %
09.03.2020 05:30 6,8 C 6,1 C 5,6 C 94 % 1010,2 hPa 0,0 l/m 0 min 0 min 0 W/m 16,1 km/h (3 Bft) 95,65 %
09.03.2020 05:32 6,8 C 6,1 C 5,6 C 94 % 1010,2 hPa 0,0 l/m 0 min 0 min 0 W/m 3,2 km/h (1 Bft) 95,74 %
09.03.2020 05:34 6,8 C 6,1 C 5,6 C 94 % 1010,3 hPa 0,0 l/m 0 min 0 min 0 W/m 12,9 km/h (3 Bft) 95,74 %
09.03.2020 05:36 6,8 C 6,1 C 5,6 C 94 % 1010,3 hPa 0,0 l/m 0 min 0 min 0 W/m 12,9 km/h (3 Bft) 93,62 %
09.03.2020 05:38 6,8 C 6,1 C 5,6 C 94 % 1010,3 hPa 0,0 l/m 0 min 0 min 0 W/m 16,1 km/h (3 Bft) 95,74 %
09.03.2020 05:40 6,8 C 6,1 C 5,6 C 94 % 1010,3 hPa 0,0 l/m 0 min 0 min 0 W/m 6,4 km/h (2 Bft) 95,83 %
09.03.2020 05:42 6,8 C 6,1 C 5,6 C 94 % 1010,4 hPa 0,0 l/m 0 min 0 min 0 W/m 3,2 km/h (1 Bft) 94,29 %
09.03.2020 05:44 6,8 C 6,1 C 5,6 C 94 % 1010,4 hPa 0,0 l/m 0 min 0 min 0 W/m 22,5 km/h (4 Bft) 96,30 %
09.03.2020 05:46 6,8 C 6,1 C 5,6 C 94 % 1010,4 hPa 0,0 l/m 0 min 0 min 0 W/m 12,9 km/h (3 Bft) 95,74 %
09.03.2020 05:48 6,8 C 6,1 C 5,6 C 94 % 1010,4 hPa 0,0 l/m 0 min 0 min 0 W/m 12,9 km/h (3 Bft) 96,00 %
09.03.2020 05:50 6,8 C 6,1 C 5,6 C 94 % 1010,5 hPa 0,0 l/m 0 min 0 min 0 W/m 12,9 km/h (3 Bft) 95,92 %
09.03.2020 05:52 6,8 C 6,1 C 5,6 C 94 % 1010,4 hPa 0,0 l/m 0 min 0 min 0 W/m 12,9 km/h (3 Bft) 94,29 %
09.03.2020 05:54 6,8 C 6,1 C 5,6 C 94 % 1010,4 hPa 0,0 l/m 0 min 0 min 0 W/m 6,4 km/h (2 Bft) 93,75 %
09.03.2020 05:56 6,8 C 6,1 C 5,6 C 94 % 1010,4 hPa 0,0 l/m 0 min 0 min 0 W/m 3,2 km/h (1 Bft) 91,49 %
09.03.2020 05:58 6,8 C 6,1 C 5,6 C 94 % 1010,4 hPa 0,0 l/m 0 min 0 min 0 W/m 3,2 km/h (1 Bft) 95,74 %
09.03.2020 06:00 6,8 C 6,1 C 5,6 C 94 % 1010,5 hPa 0,0 l/m 0 min 0 min 0 W/m 25,7 km/h (4 Bft) 95,83 %
09.03.2020 06:02 6,8 C 6,1 C 5,6 C 94 % 1010,5 hPa 0,0 l/m 0 min 0 min 0 W/m 16,1 km/h (3 Bft) 96,00 %
09.03.2020 06:04 6,8 C 6,1 C 5,6 C 94 % 1010,4 hPa 0,0 l/m 0 min 0 min 0 W/m 6,4 km/h (2 Bft) 94,34 %
09.03.2020 06:08 6,8 C 6,1 C 5,6 C 94 % 1010,5 hPa 0,0 l/m 0 min 0 min 0 W/m 16,1 km/h (3 Bft) 97,59 %
09.03.2020 06:10 6,8 C 6,1 C 5,6 C 94 % 1010,5 hPa 0,0 l/m 0 min 0 min 0 W/m 12,9 km/h (3 Bft) 97,87 %
09.03.2020 06:12 6,8 C 6,1 C 5,6 C 94 % 1010,5 hPa 0,0 l/m 0 min 0 min 0 W/m 6,4 km/h (2 Bft) 97,87 %
09.03.2020 06:14 6,8 C 6,1 C 5,6 C 94 % 1010,4 hPa 0,0 l/m 0 min 0 min 0 W/m 12,9 km/h (3 Bft) 96,36 %
09.03.2020 06:16 6,8 C 6,1 C 5,6 C 94 % 1010,5 hPa 0,0 l/m 0 min 0 min 0 W/m 12,9 km/h (3 Bft) 100,00 %
09.03.2020 06:18 6,8 C 6,1 C 5,6 C 94 % 1010,5 hPa 0,0 l/m 0 min 0 min 0 W/m 25,7 km/h (4 Bft) 100,00 %
09.03.2020 06:20 6,7 C 6,1 C 5,6 C 94 % 1010,5 hPa 0,0 l/m 0 min 0 min 0 W/m 22,5 km/h (4 Bft) 97,87 %
09.03.2020 06:22 6,7 C 6,1 C 5,6 C 94 % 1010,5 hPa 0,0 l/m 0 min 0 min 0 W/m 16,1 km/h (3 Bft) 100,00 %
09.03.2020 06:24 6,7 C 6,1 C 5,0 C 94 % 1010,5 hPa 0,0 l/m 0 min 0 min 0 W/m 9,7 km/h (2 Bft) 97,56 %
09.03.2020 06:26 6,7 C 6,1 C 5,0 C 94 % 1010,5 hPa 0,0 l/m 0 min 0 min 0 W/m 19,3 km/h (3 Bft) 100,00 %
09.03.2020 06:28 6,7 C 6,1 C 5,6 C 94 % 1010,5 hPa 0,0 l/m 0 min 0 min 0 W/m 16,1 km/h (3 Bft) 100,00 %
09.03.2020 06:30 6,6 C 6,1 C 5,6 C 94 % 1010,5 hPa 0,0 l/m 0 min 0 min 0 W/m 16,1 km/h (3 Bft) 97,87 %
09.03.2020 06:32 6,6 C 6,1 C 5,0 C 94 % 1010,6 hPa 0,0 l/m 0 min 0 min 0 W/m 16,1 km/h (3 Bft) 100,00 %
09.03.2020 06:34 6,6 C 6,1 C 5,6 C 94 % 1010,5 hPa 0,0 l/m 0 min 0 min 0 W/m 22,5 km/h (4 Bft) 100,00 %
09.03.2020 06:36 6,6 C 6,1 C 5,6 C 94 % 1010,6 hPa 0,0 l/m 0 min 0 min 0 W/m 19,3 km/h (3 Bft) 100,00 %
09.03.2020 06:38 6,6 C 6,1 C 5,6 C 94 % 1010,6 hPa 0,0 l/m 0 min 0 min 0 W/m 12,9 km/h (3 Bft) 100,00 %
09.03.2020 06:40 6,6 C 6,1 C 5,6 C 94 % 1010,6 hPa 0,0 l/m 0 min 0 min 0 W/m 16,1 km/h (3 Bft) 100,00 %
09.03.2020 06:42 6,6 C 6,1 C 5,6 C 94 % 1010,6 hPa 0,0 l/m 0 min 0 min 0 W/m 16,1 km/h (3 Bft) 100,00 %
09.03.2020 06:44 6,6 C 6,1 C 5,6 C 94 % 1010,6 hPa 0,0 l/m 0 min 0 min 0 W/m 29,0 km/h (5 Bft) 97,87 %
09.03.2020 06:46 6,6 C 6,1 C 5,6 C 94 % 1010,6 hPa 0,0 l/m 0 min 0 min 0 W/m 16,1 km/h (3 Bft) 100,00 %
09.03.2020 06:48 6,6 C 5,6 C 5,0 C 94 % 1010,6 hPa 0,0 l/m 0 min 0 min 0 W/m 3,2 km/h (1 Bft) 100,00 %
09.03.2020 06:50 6,6 C 5,6 C 5,6 C 94 % 1010,6 hPa 0,0 l/m 0 min 0 min 0 W/m 12,9 km/h (3 Bft) 97,87 %
09.03.2020 06:52 6,6 C 5,6 C 5,0 C 94 % 1010,6 hPa 0,0 l/m 0 min 0 min 0 W/m 19,3 km/h (3 Bft) 100,00 %
09.03.2020 06:54 6,6 C 5,6 C 5,0 C 94 % 1010,6 hPa 0,0 l/m 0 min 0 min 0 W/m 19,3 km/h (3 Bft) 100,00 %
09.03.2020 06:56 6,6 C 5,6 C 5,0 C 94 % 1010,6 hPa 0,0 l/m 0 min 0 min 0 W/m 12,9 km/h (3 Bft) 100,00 %
09.03.2020 06:58 6,5 C 5,6 C 5,0 C 94 % 1010,6 hPa 0,0 l/m 0 min 0 min 0 W/m 0,0 km/h (0 Bft) 100,00 %
09.03.2020 07:00 6,5 C 5,6 C 5,0 C 94 % 1010,6 hPa 0,0 l/m 0 min 0 min 0 W/m 3,2 km/h (1 Bft) 100,00 %
09.03.2020 07:02 6,5 C 5,6 C 5,0 C 94 % 1010,6 hPa 0,0 l/m 0 min 0 min 0 W/m 12,9 km/h (3 Bft) 98,00 %
09.03.2020 07:04 6,5 C 5,6 C 5,0 C 94 % 1010,6 hPa 0,0 l/m 0 min 0 min 0 W/m 16,1 km/h (3 Bft) 95,65 %
09.03.2020 07:06 6,5 C 5,6 C 5,0 C 94 % 1010,6 hPa 0,0 l/m 0 min 0 min 0 W/m 6,4 km/h (2 Bft) 100,00 %
09.03.2020 07:08 6,5 C 5,6 C 5,0 C 94 % 1010,7 hPa 0,0 l/m 0 min 0 min 3 W/m 19,3 km/h (3 Bft) 100,00 %
09.03.2020 07:10 6,5 C 5,6 C 5,0 C 94 % 1010,7 hPa 0,0 l/m 0 min 0 min 5 W/m 12,9 km/h (3 Bft) 100,00 %
09.03.2020 07:12 6,5 C 5,6 C 5,0 C 94 % 1010,7 hPa 0,0 l/m 0 min 0 min 6 W/m 0,0 km/h (0 Bft) 98,00 %
09.03.2020 07:14 6,4 C 5,6 C 5,0 C 94 % 1010,7 hPa 0,0 l/m 0 min 0 min 7 W/m 12,9 km/h (3 Bft) 97,83 %
09.03.2020 07:16 6,4 C 5,6 C 5,0 C 94 % 1010,7 hPa 0,0 l/m 0 min 0 min 7 W/m 16,1 km/h (3 Bft) 97,87 %
09.03.2020 07:18 6,4 C 5,6 C 5,0 C 94 % 1010,7 hPa 0,0 l/m 0 min 0 min 7 W/m 9,7 km/h (2 Bft) 97,30 %
09.03.2020 07:20 6,4 C 5,6 C 5,0 C 94 % 1010,7 hPa 0,0 l/m 0 min 0 min 8 W/m 16,1 km/h (3 Bft) 97,87 %
09.03.2020 07:22 6,4 C 5,6 C 5,0 C 94 % 1010,7 hPa 0,0 l/m 0 min 0 min 10 W/m 9,7 km/h (2 Bft) 96,30 %
09.03.2020 07:24 6,4 C 5,6 C 5,0 C 94 % 1010,8 hPa 0,0 l/m 0 min 0 min 15 W/m 12,9 km/h (3 Bft) 98,00 %
09.03.2020 07:26 6,4 C 6,1 C 5,0 C 94 % 1010,8 hPa 0,0 l/m 2 min 0 min 28 W/m 6,4 km/h (2 Bft) 97,30 %
09.03.2020 07:28 6,4 C 6,1 C 5,6 C 94 % 1010,9 hPa 0,0 l/m 2 min 0 min 43 W/m 12,9 km/h (3 Bft) 97,87 %
09.03.2020 07:30 6,4 C 6,1 C 5,6 C 94 % 1010,9 hPa 0,0 l/m 2 min 0 min 61 W/m 16,1 km/h (3 Bft) 98,11 %
09.03.2020 07:32 6,4 C 6,1 C 5,6 C 94 % 1010,9 hPa 0,0 l/m 2 min 0 min 92 W/m 16,1 km/h (3 Bft) 98,00 %
09.03.2020 07:34 6,4 C 6,1 C 5,6 C 94 % 1010,9 hPa 0,0 l/m 2 min 2 min 88 W/m 12,9 km/h (3 Bft) 97,87 %
09.03.2020 07:36 6,5 C 5,6 C 5,0 C 94 % 1010,9 hPa 0,0 l/m 2 min 2 min 52 W/m 16,1 km/h (3 Bft) 97,83 %
09.03.2020 07:38 6,5 C 5,0 C 5,0 C 94 % 1010,9 hPa 0,2 l/m 0 min 2 min 24 W/m 12,9 km/h (3 Bft) 97,87 %
09.03.2020 07:40 6,5 C 5,0 C 4,4 C 94 % 1011,1 hPa 0,2 l/m 0 min 2 min 13 W/m 12,9 km/h (3 Bft) 97,37 %
09.03.2020 07:42 6,5 C 5,0 C 4,4 C 94 % 1011,0 hPa 0,0 l/m 0 min 2 min 11 W/m 12,9 km/h (3 Bft) 97,87 %
09.03.2020 07:44 6,5 C 5,0 C 4,4 C 94 % 1011,1 hPa 0,0 l/m 0 min 2 min 13 W/m 9,7 km/h (2 Bft) 97,96 %
09.03.2020 07:46 6,5 C 5,0 C 4,4 C 94 % 1011,1 hPa 0,0 l/m 0 min 2 min 11 W/m 9,7 km/h (2 Bft) 97,83 %
09.03.2020 07:48 6,5 C 5,0 C 4,4 C 94 % 1011,1 hPa 0,0 l/m 0 min 2 min 11 W/m 6,4 km/h (2 Bft) 97,87 %
09.03.2020 07:50 6,5 C 5,0 C 4,4 C 94 % 1011,2 hPa 0,0 l/m 0 min 2 min 11 W/m 3,2 km/h (1 Bft) 96,30 %
09.03.2020 07:52 6,5 C 5,0 C 4,4 C 95 % 1011,2 hPa 0,0 l/m 0 min 2 min 12 W/m 12,9 km/h (3 Bft) 95,74 %
09.03.2020 07:54 6,5 C 5,0 C 4,4 C 95 % 1011,2 hPa 0,0 l/m 0 min 2 min 11 W/m 9,7 km/h (2 Bft) 97,87 %
09.03.2020 07:56 6,5 C 5,0 C 4,4 C 95 % 1011,2 hPa 0,0 l/m 0 min 2 min 11 W/m 12,9 km/h (3 Bft) 97,87 %
09.03.2020 07:58 6,4 C 5,0 C 4,4 C 95 % 1011,2 hPa 0,0 l/m 0 min 2 min 17 W/m 16,1 km/h (3 Bft) 100,00 %
09.03.2020 08:00 6,5 C 5,0 C 5,0 C 95 % 1011,2 hPa 0,0 l/m 0 min 2 min 25 W/m 9,7 km/h (2 Bft) 100,00 %
09.03.2020 08:02 6,4 C 5,6 C 5,0 C 95 % 1011,2 hPa 0,0 l/m 0 min 2 min 28 W/m 3,2 km/h (1 Bft) 100,00 %
09.03.2020 08:04 6,4 C 5,6 C 5,0 C 95 % 1011,3 hPa 0,0 l/m 0 min 2 min 27 W/m 0,0 km/h (0 Bft) 100,00 %
09.03.2020 08:06 6,4 C 5,6 C 5,0 C 95 % 1011,3 hPa 0,0 l/m 0 min 2 min 31 W/m 0,0 km/h (0 Bft) 100,00 %
09.03.2020 08:08 6,4 C 5,6 C 5,0 C 95 % 1011,3 hPa 0,0 l/m 0 min 2 min 33 W/m 0,0 km/h (0 Bft) 100,00 %
09.03.2020 08:10 6,4 C 5,6 C 5,0 C 95 % 1011,3 hPa 0,0 l/m 0 min 2 min 41 W/m 6,4 km/h (2 Bft) 100,00 %
09.03.2020 08:12 6,4 C 5,6 C 5,0 C 95 % 1011,4 hPa 0,0 l/m 0 min 2 min 47 W/m 12,9 km/h (3 Bft) 95,74 %
09.03.2020 08:14 6,4 C 5,6 C 5,0 C 95 % 1011,4 hPa 0,0 l/m 0 min 2 min 38 W/m 9,7 km/h (2 Bft) 97,92 %
09.03.2020 08:16 6,4 C 5,6 C 5,0 C 95 % 1011,4 hPa 0,0 l/m 0 min 2 min 38 W/m 6,4 km/h (2 Bft) 97,92 %
09.03.2020 08:18 6,4 C 5,6 C 5,0 C 95 % 1011,4 hPa 0,0 l/m 0 min 2 min 45 W/m 9,7 km/h (2 Bft) 97,56 %
09.03.2020 08:20 6,4 C 5,6 C 5,0 C 95 % 1011,5 hPa 0,0 l/m 0 min 0 min 53 W/m 6,4 km/h (2 Bft) 97,87 %
09.03.2020 08:22 6,4 C 5,6 C 5,0 C 95 % 1011,5 hPa 0,0 l/m 0 min 0 min 54 W/m 6,4 km/h (2 Bft) 98,00 %
09.03.2020 08:24 6,4 C 5,6 C 5,0 C 95 % 1011,5 hPa 0,0 l/m 0 min 0 min 59 W/m 3,2 km/h (1 Bft) 97,96 %
09.03.2020 08:26 6,5 C 5,6 C 5,0 C 95 % 1011,6 hPa 0,0 l/m 0 min 0 min 61 W/m 6,4 km/h (2 Bft) 97,87 %
09.03.2020 08:28 6,5 C 5,6 C 5,0 C 95 % 1011,7 hPa 0,0 l/m 0 min 0 min 75 W/m 12,9 km/h (3 Bft) 95,92 %
09.03.2020 08:30 6,5 C 5,6 C 5,0 C 96 % 1011,7 hPa 0,0 l/m 0 min 0 min 68 W/m 6,4 km/h (2 Bft) 100,00 %
09.03.2020 08:32 6,5 C 5,6 C 5,0 C 96 % 1011,6 hPa 0,0 l/m 0 min 0 min 54 W/m 0,0 km/h (0 Bft) 96,30 %
09.03.2020 08:34 6,5 C 5,6 C 5,0 C 96 % 1011,6 hPa 0,0 l/m 0 min 0 min 57 W/m 3,2 km/h (1 Bft) 97,87 %
09.03.2020 08:36 6,5 C 6,1 C 5,0 C 96 % 1011,6 hPa 0,0 l/m 0 min 0 min 91 W/m 12,9 km/h (3 Bft) 97,96 %
09.03.2020 08:38 6,5 C 6,1 C 5,6 C 96 % 1011,7 hPa 0,0 l/m 0 min 0 min 94 W/m 12,9 km/h (3 Bft) 95,74 %
09.03.2020 08:40 6,5 C 6,1 C 5,6 C 96 % 1011,7 hPa 0,0 l/m 0 min 0 min 96 W/m 12,9 km/h (3 Bft) 95,74 %
09.03.2020 08:42 6,5 C 6,1 C 5,6 C 96 % 1011,7 hPa 0,0 l/m 0 min 0 min 87 W/m 0,0 km/h (0 Bft) 93,62 %
09.03.2020 08:44 6,6 C 6,1 C 5,6 C 96 % 1011,8 hPa 0,0 l/m 0 min 0 min 85 W/m 0,0 km/h (0 Bft) 96,00 %
09.03.2020 08:46 6,6 C 6,1 C 5,6 C 96 % 1011,8 hPa 0,0 l/m 0 min 0 min 75 W/m 6,4 km/h (2 Bft) 94,29 %
09.03.2020 08:48 6,6 C 6,1 C 5,6 C 96 % 1011,8 hPa 0,0 l/m 0 min 0 min 65 W/m 0,0 km/h (0 Bft) 95,74 %
09.03.2020 08:50 6,6 C 6,1 C 5,6 C 96 % 1011,9 hPa 0,0 l/m 0 min 0 min 68 W/m 12,9 km/h (3 Bft) 91,49 %
09.03.2020 08:52 6,6 C 6,1 C 5,6 C 96 % 1011,9 hPa 0,0 l/m 0 min 0 min 72 W/m 9,7 km/h (2 Bft) 93,62 %
09.03.2020 08:54 6,7 C 6,1 C 5,6 C 96 % 1011,9 hPa 0,0 l/m 0 min 0 min 94 W/m 6,4 km/h (2 Bft) 94,55 %
09.03.2020 08:56 6,7 C 6,1 C 5,6 C 96 % 1011,9 hPa 0,0 l/m 0 min 0 min 84 W/m 6,4 km/h (2 Bft) 97,87 %
09.03.2020 08:58 6,7 C 6,1 C 5,6 C 96 % 1012,0 hPa 0,0 l/m 0 min 0 min 79 W/m 6,4 km/h (2 Bft) 97,96 %
09.03.2020 09:00 6,7 C 6,1 C 5,6 C 96 % 1012,0 hPa 0,0 l/m 0 min 0 min 104 W/m 9,7 km/h (2 Bft) 94,74 %
09.03.2020 09:02 6,7 C 6,1 C 5,6 C 96 % 1012,0 hPa 0,0 l/m 0 min 0 min 86 W/m 12,9 km/h (3 Bft) 95,74 %
09.03.2020 09:04 6,8 C 6,7 C 5,6 C 96 % 1012,0 hPa 0,0 l/m 0 min 0 min 122 W/m 9,7 km/h (2 Bft) 98,00 %
09.03.2020 09:06 6,8 C 7,2 C 6,1 C 96 % 1012,0 hPa 0,0 l/m 0 min 0 min 141 W/m 6,4 km/h (2 Bft) 97,87 %
09.03.2020 09:08 6,8 C 7,2 C 6,1 C 96 % 1012,0 hPa 0,0 l/m 0 min 0 min 146 W/m 9,7 km/h (2 Bft) 96,23 %
09.03.2020 09:10 6,9 C 6,7 C 6,1 C 96 % 1012,1 hPa 0,0 l/m 0 min 0 min 128 W/m 16,1 km/h (3 Bft) 95,65 %
09.03.2020 09:12 6,9 C 7,2 C 6,1 C 96 % 1012,1 hPa 0,0 l/m 0 min 0 min 149 W/m 3,2 km/h (1 Bft) 97,37 %
09.03.2020 09:14 6,9 C 7,2 C 6,1 C 96 % 1012,1 hPa 0,0 l/m 0 min 0 min 157 W/m 12,9 km/h (3 Bft) 96,00 %
09.03.2020 09:16 7,0 C 7,2 C 6,1 C 96 % 1012,1 hPa 0,0 l/m 0 min 0 min 154 W/m 12,9 km/h (3 Bft) 97,87 %
09.03.2020 09:18 7,0 C 7,2 C 6,1 C 96 % 1012,1 hPa 0,0 l/m 0 min 0 min 162 W/m 19,3 km/h (3 Bft) 97,87 %
09.03.2020 09:20 7,1 C 6,7 C 6,1 C 96 % 1012,3 hPa 0,0 l/m 0 min 0 min 114 W/m 16,1 km/h (3 Bft) 97,87 %
09.03.2020 09:22 7,1 C 6,7 C 6,1 C 96 % 1012,2 hPa 0,0 l/m 0 min 0 min 112 W/m 12,9 km/h (3 Bft) 97,87 %
09.03.2020 09:24 7,1 C 6,7 C 6,1 C 96 % 1012,2 hPa 0,0 l/m 0 min 0 min 103 W/m 16,1 km/h (3 Bft) 97,67 %
09.03.2020 09:26 7,1 C 6,7 C 6,1 C 96 % 1012,3 hPa 0,0 l/m 0 min 0 min 105 W/m 0,0 km/h (0 Bft) 97,87 %
09.03.2020 09:28 7,1 C 6,7 C 6,1 C 96 % 1012,3 hPa 0,0 l/m 0 min 0 min 139 W/m 9,7 km/h (2 Bft) 96,00 %
09.03.2020 09:30 7,1 C 6,7 C 6,1 C 95 % 1012,3 hPa 0,0 l/m 0 min 0 min 131 W/m 12,9 km/h (3 Bft) 97,92 %
09.03.2020 09:32 7,2 C 6,7 C 6,1 C 96 % 1012,4 hPa 0,0 l/m 0 min 0 min 152 W/m 6,4 km/h (2 Bft) 97,87 %
09.03.2020 09:34 7,2 C 7,2 C 6,7 C 95 % 1012,4 hPa 0,0 l/m 0 min 0 min 152 W/m 0,0 km/h (0 Bft) 100,00 %
09.03.2020 09:36 7,2 C 6,7 C 6,1 C 95 % 1012,4 hPa 0,0 l/m 0 min 0 min 110 W/m 9,7 km/h (2 Bft) 100,00 %
09.03.2020 09:38 7,2 C 6,7 C 6,1 C 95 % 1012,4 hPa 0,0 l/m 0 min 0 min 91 W/m 22,5 km/h (4 Bft) 100,00 %
09.03.2020 09:40 7,2 C 6,7 C 6,1 C 95 % 1012,5 hPa 0,0 l/m 0 min 0 min 101 W/m 16,1 km/h (3 Bft) 97,87 %
09.03.2020 09:42 7,2 C 6,7 C 6,1 C 95 % 1012,5 hPa 0,0 l/m 0 min 0 min 133 W/m 16,1 km/h (3 Bft) 100,00 %
09.03.2020 09:44 7,2 C 6,7 C 6,1 C 95 % 1012,6 hPa 0,0 l/m 0 min 0 min 107 W/m 22,5 km/h (4 Bft) 100,00 %
09.03.2020 09:46 7,2 C 6,7 C 6,1 C 94 % 1012,7 hPa 0,0 l/m 0 min 0 min 126 W/m 25,7 km/h (4 Bft) 97,83 %
09.03.2020 09:48 7,2 C 6,7 C 6,1 C 94 % 1012,6 hPa 0,0 l/m 0 min 0 min 170 W/m 16,1 km/h (3 Bft) 93,62 %
09.03.2020 09:50 7,2 C 6,7 C 6,1 C 94 % 1012,6 hPa 0,0 l/m 0 min 0 min 167 W/m 22,5 km/h (4 Bft) 97,87 %
09.03.2020 09:52 7,3 C 6,7 C 6,1 C 94 % 1012,7 hPa 0,0 l/m 0 min 0 min 122 W/m 12,9 km/h (3 Bft) 100,00 %
09.03.2020 09:54 7,3 C 6,7 C 6,1 C 94 % 1012,7 hPa 0,0 l/m 0 min 0 min 143 W/m 9,7 km/h (2 Bft) 97,92 %
09.03.2020 09:56 7,3 C 6,7 C 6,1 C 94 % 1012,7 hPa 0,0 l/m 0 min 0 min 152 W/m 16,1 km/h (3 Bft) 100,00 %
09.03.2020 09:58 7,3 C 6,7 C 6,1 C 93 % 1012,7 hPa 0,0 l/m 0 min 0 min 128 W/m 16,1 km/h (3 Bft) 94,44 %
09.03.2020 10:00 7,3 C 6,7 C 6,1 C 93 % 1012,7 hPa 0,0 l/m 0 min 0 min 123 W/m 19,3 km/h (3 Bft) 98,00 %
09.03.2020 10:02 7,3 C 6,7 C 6,1 C 93 % 1012,7 hPa 0,0 l/m 0 min 0 min 126 W/m 19,3 km/h (3 Bft) 95,74 %
09.03.2020 10:04 7,3 C 6,7 C 6,1 C 93 % 1012,7 hPa 0,0 l/m 0 min 0 min 136 W/m 9,7 km/h (2 Bft) 97,50 %
09.03.2020 10:06 7,4 C 7,2 C 6,1 C 93 % 1012,7 hPa 0,0 l/m 0 min 0 min 146 W/m 3,2 km/h (1 Bft) 97,83 %
09.03.2020 10:08 7,4 C 6,7 C 6,1 C 93 % 1012,7 hPa 0,0 l/m 0 min 0 min 146 W/m 19,3 km/h (3 Bft) 97,87 %
09.03.2020 10:10 7,4 C 7,2 C 6,7 C 92 % 1012,7 hPa 0,0 l/m 0 min 0 min 155 W/m 12,9 km/h (3 Bft) 97,87 %
09.03.2020 10:12 7,5 C 7,2 C 6,7 C 92 % 1012,7 hPa 0,0 l/m 0 min 0 min 155 W/m 19,3 km/h (3 Bft) 95,74 %
09.03.2020 10:14 7,5 C 7,2 C 6,7 C 92 % 1012,8 hPa 0,0 l/m 0 min 0 min 175 W/m 22,5 km/h (4 Bft) 97,87 %
09.03.2020 10:16 7,6 C 7,2 C 6,7 C 92 % 1012,8 hPa 0,0 l/m 0 min 0 min 183 W/m 12,9 km/h (3 Bft) 97,87 %
09.03.2020 10:18 7,6 C 7,2 C 6,7 C 92 % 1012,7 hPa 0,0 l/m 0 min 0 min 147 W/m 16,1 km/h (3 Bft) 97,83 %
09.03.2020 10:20 7,6 C 7,2 C 6,7 C 91 % 1012,8 hPa 0,0 l/m 0 min 0 min 148 W/m 12,9 km/h (3 Bft) 97,87 %
09.03.2020 10:22 7,7 C 7,8 C 7,2 C 91 % 1012,8 hPa 0,0 l/m 0 min 0 min 198 W/m 6,4 km/h (2 Bft) 98,15 %
09.03.2020 10:24 7,7 C 7,8 C 7,2 C 91 % 1012,8 hPa 0,0 l/m 0 min 0 min 209 W/m 6,4 km/h (2 Bft) 98,00 %
09.03.2020 10:26 7,8 C 7,8 C 7,2 C 91 % 1012,8 hPa 0,0 l/m 0 min 0 min 158 W/m 16,1 km/h (3 Bft) 97,87 %
09.03.2020 10:28 7,8 C 7,8 C 7,2 C 91 % 1012,8 hPa 0,0 l/m 0 min 0 min 205 W/m 16,1 km/h (3 Bft) 95,74 %
09.03.2020 10:30 7,8 C 7,8 C 7,2 C 90 % 1012,8 hPa 0,0 l/m 0 min 0 min 216 W/m 16,1 km/h (3 Bft) 97,83 %
09.03.2020 10:32 7,8 C 8,3 C 7,8 C 90 % 1012,8 hPa 0,0 l/m 0 min 0 min 215 W/m 6,4 km/h (2 Bft) 97,37 %
09.03.2020 10:34 7,9 C 8,3 C 7,8 C 90 % 1012,9 hPa 0,0 l/m 0 min 0 min 215 W/m 9,7 km/h (2 Bft) 97,87 %
09.03.2020 10:36 7,9 C 8,3 C 7,2 C 90 % 1012,9 hPa 0,0 l/m 0 min 0 min 188 W/m 19,3 km/h (3 Bft) 97,87 %
09.03.2020 10:38 7,9 C 8,3 C 7,2 C 90 % 1013,0 hPa 0,0 l/m 0 min 0 min 178 W/m 16,1 km/h (3 Bft) 97,87 %
09.03.2020 10:40 8,0 C 8,3 C 7,2 C 90 % 1013,0 hPa 0,0 l/m 0 min 0 min 178 W/m 19,3 km/h (3 Bft) 54,35 %
09.03.2020 10:42 8,1 C 8,3 C 7,8 C 89 % 1013,0 hPa 0,0 l/m 0 min 0 min 197 W/m 12,9 km/h (3 Bft) 92,73 %
09.03.2020 10:44 8,1 C 8,3 C 7,8 C 89 % 1013,0 hPa 0,0 l/m 0 min 0 min 194 W/m 16,1 km/h (3 Bft) 95,74 %
09.03.2020 10:46 8,1 C 8,9 C 7,8 C 89 % 1013,1 hPa 0,0 l/m 2 min 0 min 249 W/m 12,9 km/h (3 Bft) 94,74 %
09.03.2020 10:48 8,1 C 8,9 C 7,8 C 89 % 1013,1 hPa 0,0 l/m 0 min 0 min 210 W/m 16,1 km/h (3 Bft) 95,83 %
09.03.2020 10:50 8,1 C 8,9 C 7,8 C 88 % 1013,1 hPa 0,0 l/m 0 min 0 min 223 W/m 12,9 km/h (3 Bft) 93,62 %
09.03.2020 10:52 8,2 C 8,9 C 7,8 C 88 % 1013,1 hPa 0,0 l/m 0 min 0 min 207 W/m 9,7 km/h (2 Bft) 96,36 %
09.03.2020 10:54 8,2 C 8,9 C 8,3 C 88 % 1013,1 hPa 0,0 l/m 0 min 0 min 228 W/m 12,9 km/h (3 Bft) 95,65 %
09.03.2020 10:56 8,2 C 9,4 C 8,3 C 88 % 1013,1 hPa 0,0 l/m 2 min 0 min 266 W/m 22,5 km/h (4 Bft) 94,87 %
09.03.2020 10:58 8,3 C 9,4 C 8,3 C 88 % 1013,2 hPa 0,0 l/m 0 min 0 min 240 W/m 12,9 km/h (3 Bft) 95,65 %
09.03.2020 11:00 8,3 C 9,4 C 8,3 C 88 % 1013,2 hPa 0,0 l/m 0 min 0 min 215 W/m 9,7 km/h (2 Bft) 95,92 %
09.03.2020 11:02 8,3 C 8,9 C 8,3 C 88 % 1013,2 hPa 0,0 l/m 0 min 0 min 178 W/m 12,9 km/h (3 Bft) 97,87 %
09.03.2020 11:04 8,4 C 8,9 C 8,3 C 88 % 1013,3 hPa 0,0 l/m 0 min 0 min 191 W/m 22,5 km/h (4 Bft) 95,65 %
09.03.2020 11:06 8,4 C 10,0 C 8,3 C 87 % 1013,2 hPa 0,0 l/m 2 min 0 min 287 W/m 12,9 km/h (3 Bft) 96,30 %
09.03.2020 11:08 8,4 C 10,0 C 8,9 C 88 % 1013,2 hPa 0,0 l/m 2 min 0 min 339 W/m 16,1 km/h (3 Bft) 97,37 %
09.03.2020 11:10 8,5 C 10,0 C 8,9 C 87 % 1013,2 hPa 0,0 l/m 0 min 0 min 228 W/m 16,1 km/h (3 Bft) 97,96 %
09.03.2020 11:12 8,5 C 8,9 C 8,3 C 87 % 1013,2 hPa 0,0 l/m 0 min 0 min 180 W/m 16,1 km/h (3 Bft) 97,87 %
09.03.2020 11:14 8,6 C 8,9 C 8,3 C 86 % 1013,3 hPa 0,0 l/m 0 min 0 min 162 W/m 16,1 km/h (3 Bft) 96,30 %
09.03.2020 11:16 8,6 C 8,3 C 7,8 C 86 % 1013,3 hPa 0,0 l/m 0 min 0 min 136 W/m 12,9 km/h (3 Bft) 97,87 %
09.03.2020 11:18 8,6 C 8,3 C 7,8 C 86 % 1013,3 hPa 0,0 l/m 0 min 0 min 115 W/m 19,3 km/h (3 Bft) 97,83 %
09.03.2020 11:20 8,5 C 8,3 C 7,8 C 85 % 1013,4 hPa 0,0 l/m 0 min 0 min 136 W/m 16,1 km/h (3 Bft) 97,87 %
09.03.2020 11:22 8,5 C 8,9 C 7,8 C 85 % 1013,3 hPa 0,0 l/m 0 min 0 min 207 W/m 6,4 km/h (2 Bft) 97,87 %
09.03.2020 11:24 8,6 C 10,6 C 8,3 C 85 % 1013,4 hPa 0,0 l/m 2 min 0 min 272 W/m 9,7 km/h (2 Bft) 100,00 %
09.03.2020 11:26 8,6 C 9,4 C 8,3 C 85 % 1013,4 hPa 0,0 l/m 0 min 0 min 193 W/m 12,9 km/h (3 Bft) 100,00 %
09.03.2020 11:28 8,6 C 8,9 C 7,8 C 85 % 1013,3 hPa 0,0 l/m 0 min 0 min 88 W/m 22,5 km/h (4 Bft) 100,00 %
09.03.2020 11:30 8,6 C 8,3 C 7,8 C 85 % 1013,4 hPa 0,0 l/m 0 min 0 min 93 W/m 22,5 km/h (4 Bft) 100,00 %
09.03.2020 11:32 8,6 C 7,8 C 7,8 C 85 % 1013,4 hPa 0,0 l/m 0 min 0 min 104 W/m 25,7 km/h (4 Bft) 95,74 %
09.03.2020 11:34 8,5 C 8,3 C 7,2 C 85 % 1013,4 hPa 0,0 l/m 0 min 0 min 142 W/m 16,1 km/h (3 Bft) 97,87 %
09.03.2020 11:36 8,5 C 10,0 C 7,8 C 85 % 1013,4 hPa 0,0 l/m 0 min 0 min 219 W/m 25,7 km/h (4 Bft) 100,00 %
09.03.2020 11:38 8,5 C 10,0 C 7,8 C 85 % 1013,5 hPa 0,0 l/m 2 min 0 min 298 W/m 22,5 km/h (4 Bft) 100,00 %
09.03.2020 11:40 8,6 C 9,4 C 7,8 C 86 % 1013,5 hPa 0,0 l/m 2 min 2 min 284 W/m 19,3 km/h (3 Bft) 97,87 %
09.03.2020 11:42 8,6 C 8,3 C 7,2 C 86 % 1013,6 hPa 0,0 l/m 0 min 2 min 148 W/m 16,1 km/h (3 Bft) 97,87 %
09.03.2020 11:44 8,6 C 8,3 C 7,2 C 86 % 1013,6 hPa 0,0 l/m 0 min 2 min 139 W/m 6,4 km/h (2 Bft) 97,92 %
09.03.2020 11:46 8,6 C 7,8 C 7,2 C 87 % 1013,6 hPa 0,0 l/m 0 min 0 min 149 W/m 12,9 km/h (3 Bft) 97,87 %
09.03.2020 11:48 8,5 C 8,3 C 7,2 C 87 % 1013,5 hPa 0,0 l/m 0 min 0 min 173 W/m 3,2 km/h (1 Bft) 97,87 %
09.03.2020 11:50 8,5 C 8,3 C 7,2 C 87 % 1013,5 hPa 0,0 l/m 0 min 0 min 187 W/m 9,7 km/h (2 Bft) 97,83 %
09.03.2020 11:52 8,4 C 8,9 C 7,2 C 86 % 1013,5 hPa 0,0 l/m 0 min 0 min 193 W/m 16,1 km/h (3 Bft) 97,62 %
09.03.2020 11:54 8,4 C 8,9 C 7,8 C 86 % 1013,5 hPa 0,0 l/m 0 min 0 min 176 W/m 12,9 km/h (3 Bft) 97,96 %
09.03.2020 11:56 8,4 C 12,2 C 7,8 C 86 % 1013,5 hPa 0,0 l/m 0 min 0 min 240 W/m 0,0 km/h (0 Bft) 95,74 %
09.03.2020 11:58 8,5 C 14,4 C 8,9 C 86 % 1013,6 hPa 0,0 l/m 2 min 0 min 691 W/m 12,9 km/h (3 Bft) 97,87 %
09.03.2020 12:00 8,7 C 15,0 C 9,4 C 87 % 1013,6 hPa 0,0 l/m 2 min 0 min 750 W/m 16,1 km/h (3 Bft) 97,87 %
09.03.2020 12:02 8,8 C 16,7 C 10,0 C 86 % 1013,6 hPa 0,0 l/m 2 min 0 min 779 W/m 16,1 km/h (3 Bft) 95,74 %
09.03.2020 12:04 9,1 C 15,6 C 10,0 C 86 % 1013,6 hPa 0,0 l/m 2 min 0 min 786 W/m 16,1 km/h (3 Bft) 97,87 %
09.03.2020 12:08 9,4 C 13,9 C 10,0 C 84 % 1013,5 hPa 0,0 l/m 4 min 0 min 791 W/m 19,3 km/h (3 Bft) 97,92 %
09.03.2020 12:10 9,6 C 12,2 C 10,0 C 83 % 1013,6 hPa 0,0 l/m 2 min 0 min 315 W/m 22,5 km/h (4 Bft) 93,88 %
09.03.2020 12:12 9,7 C 10,0 C 8,9 C 83 % 1013,7 hPa 0,0 l/m 0 min 2 min 145 W/m 16,1 km/h (3 Bft) 100,00 %
09.03.2020 12:14 9,7 C 8,3 C 7,2 C 83 % 1013,7 hPa 0,0 l/m 0 min 2 min 126 W/m 19,3 km/h (3 Bft) 94,44 %
09.03.2020 12:16 9,6 C 7,2 C 6,7 C 84 % 1013,8 hPa 0,0 l/m 0 min 2 min 126 W/m 12,9 km/h (3 Bft) 97,87 %
09.03.2020 12:18 9,5 C 7,2 C 6,7 C 85 % 1013,9 hPa 0,0 l/m 0 min 2 min 100 W/m 16,1 km/h (3 Bft) 97,96 %
09.03.2020 12:20 9,4 C 6,7 C 6,7 C 85 % 1014,0 hPa 0,2 l/m 0 min 2 min 61 W/m 16,1 km/h (3 Bft) 98,00 %
09.03.2020 12:22 9,2 C 5,0 C 5,6 C 85 % 1013,9 hPa 0,2 l/m 0 min 2 min 55 W/m 22,5 km/h (4 Bft) 97,87 %
09.03.2020 12:24 9,1 C 5,0 C 5,6 C 84 % 1013,9 hPa 0,0 l/m 0 min 2 min 64 W/m 12,9 km/h (3 Bft) 100,00 %
09.03.2020 12:26 8,9 C 5,6 C 5,6 C 84 % 1013,9 hPa 0,0 l/m 0 min 0 min 75 W/m 0,0 km/h (0 Bft) 100,00 %
09.03.2020 12:28 8,8 C 6,1 C 5,6 C 85 % 1013,9 hPa 0,0 l/m 0 min 0 min 90 W/m 0,0 km/h (0 Bft) 100,00 %
09.03.2020 12:30 8,7 C 6,1 C 6,1 C 85 % 1013,8 hPa 0,0 l/m 0 min 0 min 114 W/m 0,0 km/h (0 Bft) 97,87 %
09.03.2020 12:32 8,7 C 6,7 C 6,1 C 86 % 1013,9 hPa 0,0 l/m 0 min 0 min 131 W/m 0,0 km/h (0 Bft) 100,00 %
09.03.2020 12:34 8,6 C 7,2 C 6,7 C 86 % 1013,9 hPa 0,0 l/m 0 min 0 min 147 W/m 3,2 km/h (1 Bft) 97,87 %
09.03.2020 12:36 8,6 C 8,3 C 6,7 C 87 % 1013,8 hPa 0,0 l/m 0 min 0 min 271 W/m 3,2 km/h (1 Bft) 100,00 %
09.03.2020 12:38 8,6 C 11,1 C 7,2 C 87 % 1013,8 hPa 0,0 l/m 2 min 0 min 573 W/m 6,4 km/h (2 Bft) 100,00 %
09.03.2020 12:40 8,7 C 12,2 C 7,8 C 89 % 1013,8 hPa 0,0 l/m 2 min 0 min 674 W/m 9,7 km/h (2 Bft) 97,87 %
09.03.2020 12:42 8,8 C 12,8 C 8,9 C 89 % 1013,8 hPa 0,0 l/m 2 min 0 min 682 W/m 12,9 km/h (3 Bft) 100,00 %
09.03.2020 12:44 8,9 C 13,9 C 10,6 C 90 % 1013,8 hPa 0,0 l/m 2 min 0 min 677 W/m 3,2 km/h (1 Bft) 97,87 %
09.03.2020 12:46 9,0 C 14,4 C 12,2 C 90 % 1013,8 hPa 0,0 l/m 2 min 0 min 716 W/m 0,0 km/h (0 Bft) 100,00 %
09.03.2020 12:48 9,1 C 14,4 C 12,8 C 90 % 1013,8 hPa 0,0 l/m 2 min 0 min 776 W/m 19,3 km/h (3 Bft) 100,00 %
09.03.2020 12:50 9,3 C 14,4 C 13,3 C 91 % 1013,8 hPa 0,0 l/m 2 min 0 min 789 W/m 22,5 km/h (4 Bft) 100,00 %
09.03.2020 12:52 9,5 C 12,8 C 12,2 C 90 % 1013,8 hPa 0,2 l/m 2 min 0 min 730 W/m 29,0 km/h (5 Bft) 97,87 %
09.03.2020 12:54 9,6 C 12,8 C 12,2 C 89 % 1013,9 hPa 0,0 l/m 2 min 0 min 687 W/m 19,3 km/h (3 Bft) 100,00 %
09.03.2020 12:56 9,7 C 12,2 C 11,7 C 88 % 1013,9 hPa 0,0 l/m 2 min 0 min 703 W/m 22,5 km/h (4 Bft) 100,00 %
09.03.2020 12:58 9,8 C 12,8 C 12,8 C 86 % 1013,9 hPa 0,0 l/m 2 min 0 min 742 W/m 22,5 km/h (4 Bft) 100,00 %
09.03.2020 13:00 9,9 C 12,2 C 12,2 C 86 % 1014,0 hPa 0,0 l/m 2 min 0 min 580 W/m 29,0 km/h (5 Bft) 97,92 %
09.03.2020 13:02 10,1 C 10,6 C 10,6 C 84 % 1013,9 hPa 0,0 l/m 2 min 0 min 672 W/m 12,9 km/h (3 Bft) 100,00 %
09.03.2020 13:04 10,1 C 10,0 C 9,4 C 84 % 1014,0 hPa 0,0 l/m 0 min 0 min 278 W/m 19,3 km/h (3 Bft) 97,87 %
09.03.2020 13:06 10,1 C 9,4 C 8,9 C 83 % 1013,9 hPa 0,0 l/m 0 min 0 min 256 W/m 22,5 km/h (4 Bft) 95,74 %
09.03.2020 13:08 10,1 C 8,9 C 8,9 C 82 % 1013,9 hPa 0,0 l/m 0 min 0 min 229 W/m 16,1 km/h (3 Bft) 96,30 %
09.03.2020 13:10 10,1 C 9,4 C 8,9 C 82 % 1014,0 hPa 0,0 l/m 0 min 0 min 276 W/m 16,1 km/h (3 Bft) 97,37 %
09.03.2020 13:12 10,0 C 8,9 C 8,3 C 82 % 1014,0 hPa 0,0 l/m 0 min 0 min 205 W/m 19,3 km/h (3 Bft) 97,92 %
09.03.2020 13:14 9,9 C 8,9 C 8,3 C 81 % 1014,1 hPa 0,0 l/m 0 min 0 min 197 W/m 16,1 km/h (3 Bft) 97,92 %
09.03.2020 13:16 9,8 C 8,3 C 8,3 C 81 % 1014,0 hPa 0,0 l/m 0 min 0 min 208 W/m 22,5 km/h (4 Bft) 97,87 %
09.03.2020 13:18 9,8 C 8,3 C 7,8 C 80 % 1014,1 hPa 0,0 l/m 0 min 0 min 215 W/m 19,3 km/h (3 Bft) 97,87 %
09.03.2020 13:20 9,7 C 8,3 C 7,8 C 80 % 1014,1 hPa 0,0 l/m 0 min 0 min 225 W/m 16,1 km/h (3 Bft) 97,87 %
09.03.2020 13:22 9,7 C 8,9 C 8,3 C 80 % 1014,1 hPa 0,0 l/m 0 min 0 min 250 W/m 16,1 km/h (3 Bft) 97,83 %
09.03.2020 13:24 9,6 C 9,4 C 8,3 C 80 % 1014,1 hPa 0,0 l/m 2 min 0 min 303 W/m 12,9 km/h (3 Bft) 97,92 %
09.03.2020 13:26 9,6 C 10,0 C 8,9 C 81 % 1014,1 hPa 0,0 l/m 2 min 0 min 309 W/m 19,3 km/h (3 Bft) 95,74 %
09.03.2020 13:28 9,6 C 11,1 C 8,9 C 81 % 1014,1 hPa 0,0 l/m 2 min 0 min 376 W/m 16,1 km/h (3 Bft) 97,87 %
09.03.2020 13:30 9,6 C 10,6 C 8,9 C 80 % 1014,1 hPa 0,0 l/m 2 min 0 min 334 W/m 9,7 km/h (2 Bft) 95,74 %
09.03.2020 13:32 9,7 C 10,0 C 8,3 C 80 % 1014,1 hPa 0,0 l/m 0 min 0 min 215 W/m 16,1 km/h (3 Bft) 95,35 %
09.03.2020 13:34 9,6 C 9,4 C 8,3 C 79 % 1014,1 hPa 0,0 l/m 0 min 0 min 223 W/m 12,9 km/h (3 Bft) 98,00 %
09.03.2020 13:36 9,6 C 9,4 C 8,3 C 79 % 1014,1 hPa 0,0 l/m 0 min 0 min 231 W/m 22,5 km/h (4 Bft) 97,87 %
09.03.2020 13:38 9,6 C 10,0 C 8,3 C 79 % 1014,1 hPa 0,0 l/m 0 min 0 min 246 W/m 25,7 km/h (4 Bft) 97,87 %
09.03.2020 13:40 9,6 C 10,0 C 8,3 C 79 % 1014,1 hPa 0,0 l/m 2 min 0 min 279 W/m 16,1 km/h (3 Bft) 95,35 %
09.03.2020 13:42 9,6 C 10,6 C 8,9 C 79 % 1014,1 hPa 0,0 l/m 0 min 0 min 259 W/m 16,1 km/h (3 Bft) 97,87 %
09.03.2020 13:44 9,6 C 10,0 C 8,3 C 79 % 1014,1 hPa 0,0 l/m 0 min 0 min 238 W/m 19,3 km/h (3 Bft) 95,74 %
09.03.2020 13:46 9,6 C 10,0 C 8,3 C 79 % 1014,1 hPa 0,0 l/m 0 min 0 min 261 W/m 19,3 km/h (3 Bft) 97,87 %
09.03.2020 13:48 9,7 C 10,6 C 8,9 C 79 % 1014,1 hPa 0,0 l/m 2 min 0 min 271 W/m 19,3 km/h (3 Bft) 98,00 %
09.03.2020 13:50 9,7 C 10,0 C 8,3 C 78 % 1014,1 hPa 0,0 l/m 0 min 0 min 252 W/m 22,5 km/h (4 Bft) 97,92 %
09.03.2020 13:52 9,6 C 10,0 C 8,3 C 77 % 1014,1 hPa 0,0 l/m 0 min 0 min 223 W/m 12,9 km/h (3 Bft) 100,00 %
09.03.2020 13:54 9,6 C 10,0 C 8,3 C 77 % 1014,2 hPa 0,0 l/m 0 min 0 min 208 W/m 6,4 km/h (2 Bft) 97,96 %
09.03.2020 13:56 9,7 C 10,0 C 8,3 C 77 % 1014,1 hPa 0,0 l/m 0 min 0 min 203 W/m 16,1 km/h (3 Bft) 100,00 %
09.03.2020 13:58 9,6 C 9,4 C 8,3 C 76 % 1014,2 hPa 0,0 l/m 0 min 0 min 180 W/m 16,1 km/h (3 Bft) 94,44 %
09.03.2020 14:00 9,6 C 9,4 C 7,8 C 76 % 1014,1 hPa 0,0 l/m 0 min 0 min 184 W/m 16,1 km/h (3 Bft) 97,87 %
09.03.2020 14:02 9,6 C 9,4 C 8,3 C 77 % 1014,2 hPa 0,0 l/m 0 min 0 min 192 W/m 16,1 km/h (3 Bft) 97,83 %
09.03.2020 14:04 9,6 C 9,4 C 7,8 C 76 % 1014,2 hPa 0,0 l/m 0 min 0 min 187 W/m 19,3 km/h (3 Bft) 98,00 %
09.03.2020 14:06 9,6 C 9,4 C 8,3 C 76 % 1014,2 hPa 0,0 l/m 0 min 0 min 183 W/m 22,5 km/h (4 Bft) 98,00 %
09.03.2020 14:08 9,5 C 9,4 C 8,9 C 76 % 1014,2 hPa 0,0 l/m 0 min 0 min 170 W/m 16,1 km/h (3 Bft) 97,37 %
09.03.2020 14:10 9,5 C 9,4 C 8,9 C 76 % 1014,2 hPa 0,0 l/m 0 min 0 min 164 W/m 6,4 km/h (2 Bft) 97,87 %
09.03.2020 14:12 9,5 C 9,4 C 8,9 C 76 % 1014,2 hPa 0,0 l/m 0 min 0 min 166 W/m 16,1 km/h (3 Bft) 97,87 %
09.03.2020 14:14 9,4 C 9,4 C 8,9 C 76 % 1014,2 hPa 0,0 l/m 0 min 0 min 168 W/m 12,9 km/h (3 Bft) 97,83 %
09.03.2020 14:16 9,4 C 11,1 C 8,9 C 76 % 1014,3 hPa 0,0 l/m 0 min 0 min 192 W/m 12,9 km/h (3 Bft) 95,74 %
09.03.2020 14:18 9,4 C 10,6 C 8,9 C 76 % 1014,2 hPa 0,0 l/m 0 min 0 min 203 W/m 16,1 km/h (3 Bft) 95,83 %
09.03.2020 14:20 9,4 C 10,0 C 8,9 C 76 % 1014,3 hPa 0,0 l/m 0 min 0 min 162 W/m 12,9 km/h (3 Bft) 97,87 %
09.03.2020 14:22 9,4 C 9,4 C 8,9 C 76 % 1014,3 hPa 0,0 l/m 0 min 0 min 151 W/m 19,3 km/h (3 Bft) 97,83 %
09.03.2020 14:24 9,4 C 9,4 C 8,9 C 75 % 1014,3 hPa 0,0 l/m 0 min 0 min 146 W/m 12,9 km/h (3 Bft) 96,36 %
09.03.2020 14:26 9,4 C 9,4 C 8,9 C 75 % 1014,3 hPa 0,0 l/m 0 min 0 min 152 W/m 12,9 km/h (3 Bft) 97,87 %
09.03.2020 14:28 9,4 C 8,9 C 8,9 C 76 % 1014,3 hPa 0,0 l/m 0 min 0 min 155 W/m 19,3 km/h (3 Bft) 100,00 %
09.03.2020 14:30 9,3 C 9,4 C 8,9 C 76 % 1014,4 hPa 0,0 l/m 0 min 0 min 149 W/m 12,9 km/h (3 Bft) 95,92 %
09.03.2020 14:32 9,3 C 9,4 C 8,9 C 76 % 1014,4 hPa 0,0 l/m 0 min 0 min 151 W/m 19,3 km/h (3 Bft) 97,83 %
09.03.2020 14:34 9,3 C 9,4 C 8,9 C 76 % 1014,4 hPa 0,0 l/m 0 min 0 min 145 W/m 12,9 km/h (3 Bft) 95,74 %
09.03.2020 14:36 9,3 C 9,4 C 8,9 C 76 % 1014,4 hPa 0,0 l/m 0 min 0 min 144 W/m 9,7 km/h (2 Bft) 93,62 %
09.03.2020 14:38 9,3 C 9,4 C 8,9 C 76 % 1014,4 hPa 0,0 l/m 0 min 0 min 159 W/m 19,3 km/h (3 Bft) 95,74 %
09.03.2020 14:40 9,3 C 9,4 C 8,9 C 76 % 1014,5 hPa 0,0 l/m 0 min 0 min 210 W/m 16,1 km/h (3 Bft) 95,74 %
09.03.2020 14:42 9,3 C 10,0 C 8,9 C 75 % 1014,5 hPa 0,0 l/m 2 min 0 min 280 W/m 19,3 km/h (3 Bft) 94,44 %
09.03.2020 14:44 9,3 C 10,6 C 9,4 C 75 % 1014,4 hPa 0,0 l/m 2 min 0 min 301 W/m 16,1 km/h (3 Bft) 94,74 %
09.03.2020 14:46 9,4 C 10,6 C 9,4 C 76 % 1014,4 hPa 0,0 l/m 2 min 0 min 297 W/m 9,7 km/h (2 Bft) 93,62 %
09.03.2020 14:48 9,4 C 10,6 C 9,4 C 76 % 1014,4 hPa 0,0 l/m 2 min 0 min 329 W/m 12,9 km/h (3 Bft) 95,92 %
09.03.2020 14:50 9,4 C 10,0 C 9,4 C 76 % 1014,4 hPa 0,0 l/m 0 min 0 min 213 W/m 19,3 km/h (3 Bft) 95,74 %
09.03.2020 14:52 9,4 C 10,0 C 9,4 C 76 % 1014,4 hPa 0,0 l/m 0 min 0 min 154 W/m 22,5 km/h (4 Bft) 94,34 %
09.03.2020 14:54 9,5 C 11,7 C 9,4 C 76 % 1014,3 hPa 0,0 l/m 2 min 0 min 272 W/m 16,1 km/h (3 Bft) 95,24 %
09.03.2020 14:56 9,6 C 11,7 C 9,4 C 76 % 1014,3 hPa 0,0 l/m 2 min 0 min 377 W/m 12,9 km/h (3 Bft) 97,83 %
09.03.2020 14:58 9,6 C 13,3 C 9,4 C 76 % 1014,3 hPa 0,0 l/m 2 min 0 min 263 W/m 16,1 km/h (3 Bft) 97,73 %
09.03.2020 15:00 9,7 C 13,9 C 9,4 C 77 % 1014,3 hPa 0,0 l/m 2 min 0 min 534 W/m 19,3 km/h (3 Bft) 97,96 %
09.03.2020 15:02 9,7 C 14,4 C 10,0 C 77 % 1014,3 hPa 0,0 l/m 2 min 0 min 525 W/m 16,1 km/h (3 Bft) 63,83 %
09.03.2020 15:04 9,8 C 13,3 C 9,4 C 75 % 1014,4 hPa 0,0 l/m 2 min 0 min 509 W/m 32,2 km/h (5 Bft) 90,91 %
09.03.2020 15:06 9,9 C 13,9 C 9,4 C 75 % 1014,2 hPa 0,0 l/m 2 min 0 min 495 W/m 32,2 km/h (5 Bft) 97,96 %
09.03.2020 15:08 10,1 C 13,9 C 9,4 C 74 % 1014,3 hPa 0,0 l/m 2 min 0 min 492 W/m 19,3 km/h (3 Bft) 97,22 %
09.03.2020 15:10 10,1 C 13,3 C 9,4 C 74 % 1014,3 hPa 0,0 l/m 2 min 0 min 483 W/m 19,3 km/h (3 Bft) 98,11 %
09.03.2020 15:12 10,2 C 13,9 C 10,0 C 74 % 1014,3 hPa 0,0 l/m 2 min 0 min 481 W/m 12,9 km/h (3 Bft) 97,83 %
09.03.2020 15:14 10,3 C 13,9 C 10,0 C 74 % 1014,3 hPa 0,0 l/m 2 min 0 min 478 W/m 19,3 km/h (3 Bft) 97,62 %
09.03.2020 15:16 10,3 C 14,4 C 10,0 C 74 % 1014,2 hPa 0,0 l/m 2 min 0 min 467 W/m 12,9 km/h (3 Bft) 97,87 %
09.03.2020 15:18 10,4 C 14,4 C 10,0 C 74 % 1014,2 hPa 0,0 l/m 2 min 0 min 466 W/m 19,3 km/h (3 Bft) 95,74 %
09.03.2020 15:20 10,5 C 15,0 C 10,0 C 74 % 1014,2 hPa 0,0 l/m 2 min 0 min 453 W/m 12,9 km/h (3 Bft) 98,18 %
09.03.2020 15:22 10,6 C 14,4 C 10,0 C 75 % 1014,3 hPa 0,0 l/m 2 min 0 min 451 W/m 9,7 km/h (2 Bft) 97,87 %
09.03.2020 15:24 10,7 C 14,4 C 10,6 C 74 % 1014,2 hPa 0,0 l/m 2 min 0 min 456 W/m 12,9 km/h (3 Bft) 100,00 %
09.03.2020 15:26 10,8 C 14,4 C 10,6 C 74 % 1014,2 hPa 0,0 l/m 2 min 0 min 457 W/m 12,9 km/h (3 Bft) 100,00 %
09.03.2020 15:28 10,8 C 14,4 C 10,6 C 73 % 1014,3 hPa 0,0 l/m 2 min 0 min 456 W/m 12,9 km/h (3 Bft) 100,00 %
09.03.2020 15:30 10,9 C 13,9 C 10,6 C 73 % 1014,3 hPa 0,0 l/m 2 min 0 min 446 W/m 19,3 km/h (3 Bft) 100,00 %
09.03.2020 15:32 10,9 C 13,9 C 10,6 C 73 % 1014,3 hPa 0,0 l/m 2 min 0 min 436 W/m 16,1 km/h (3 Bft) 97,87 %
09.03.2020 15:34 11,0 C 13,9 C 11,1 C 72 % 1014,3 hPa 0,0 l/m 2 min 0 min 441 W/m 12,9 km/h (3 Bft) 100,00 %
09.03.2020 15:36 11,0 C 13,9 C 11,1 C 72 % 1014,2 hPa 0,0 l/m 2 min 0 min 422 W/m 12,9 km/h (3 Bft) 97,37 %
09.03.2020 15:38 11,0 C 14,4 C 11,1 C 72 % 1014,2 hPa 0,0 l/m 2 min 0 min 423 W/m 12,9 km/h (3 Bft) 97,87 %
09.03.2020 15:40 11,1 C 14,4 C 11,1 C 72 % 1014,3 hPa 0,0 l/m 2 min 0 min 423 W/m 16,1 km/h (3 Bft) 98,11 %
09.03.2020 15:42 11,1 C 13,3 C 11,7 C 72 % 1014,3 hPa 0,0 l/m 2 min 0 min 424 W/m 6,4 km/h (2 Bft) 95,74 %
09.03.2020 15:44 11,1 C 12,2 C 10,6 C 72 % 1014,4 hPa 0,0 l/m 0 min 0 min 119 W/m 9,7 km/h (2 Bft) 100,00 %
09.03.2020 15:46 11,1 C 12,8 C 11,1 C 72 % 1014,4 hPa 0,0 l/m 2 min 0 min 347 W/m 22,5 km/h (4 Bft) 95,74 %
09.03.2020 15:48 11,1 C 11,7 C 10,6 C 71 % 1014,5 hPa 0,0 l/m 2 min 0 min 315 W/m 16,1 km/h (3 Bft) 98,18 %
09.03.2020 15:50 11,0 C 11,1 C 10,0 C 71 % 1014,5 hPa 0,0 l/m 0 min 0 min 162 W/m 22,5 km/h (4 Bft) 97,87 %
09.03.2020 15:52 10,9 C 10,6 C 9,4 C 71 % 1014,5 hPa 0,0 l/m 0 min 0 min 173 W/m 22,5 km/h (4 Bft) 97,87 %
09.03.2020 15:54 10,8 C 10,6 C 9,4 C 71 % 1014,5 hPa 0,0 l/m 2 min 0 min 194 W/m 19,3 km/h (3 Bft) 97,87 %
09.03.2020 15:56 10,7 C 10,0 C 9,4 C 71 % 1014,5 hPa 0,0 l/m 0 min 0 min 172 W/m 16,1 km/h (3 Bft) 97,37 %
09.03.2020 15:58 10,6 C 10,0 C 9,4 C 71 % 1014,5 hPa 0,0 l/m 0 min 0 min 165 W/m 22,5 km/h (4 Bft) 97,87 %
09.03.2020 16:00 10,6 C 10,6 C 9,4 C 72 % 1014,4 hPa 0,0 l/m 2 min 0 min 186 W/m 12,9 km/h (3 Bft) 97,92 %
09.03.2020 16:02 10,5 C 10,0 C 9,4 C 72 % 1014,5 hPa 0,0 l/m 2 min 0 min 176 W/m 12,9 km/h (3 Bft) 95,83 %
09.03.2020 16:04 10,4 C 10,0 C 9,4 C 72 % 1014,5 hPa 0,0 l/m 2 min 0 min 175 W/m 16,1 km/h (3 Bft) 97,92 %
09.03.2020 16:06 10,4 C 10,0 C 9,4 C 72 % 1014,5 hPa 0,0 l/m 2 min 0 min 179 W/m 25,7 km/h (4 Bft) 95,74 %
09.03.2020 16:08 10,3 C 10,0 C 9,4 C 72 % 1014,6 hPa 0,0 l/m 0 min 0 min 163 W/m 19,3 km/h (3 Bft) 97,67 %
09.03.2020 16:10 10,3 C 10,0 C 9,4 C 72 % 1014,6 hPa 0,0 l/m 0 min 0 min 162 W/m 16,1 km/h (3 Bft) 97,83 %
09.03.2020 16:12 10,2 C 10,0 C 9,4 C 72 % 1014,6 hPa 0,0 l/m 2 min 0 min 172 W/m 12,9 km/h (3 Bft) 98,00 %
09.03.2020 16:14 10,2 C 10,6 C 10,0 C 73 % 1014,6 hPa 0,0 l/m 2 min 0 min 197 W/m 12,9 km/h (3 Bft) 98,00 %
09.03.2020 16:16 10,2 C 10,6 C 10,0 C 73 % 1014,6 hPa 0,0 l/m 2 min 0 min 327 W/m 16,1 km/h (3 Bft) 97,83 %
09.03.2020 16:18 10,2 C 11,1 C 10,6 C 72 % 1014,5 hPa 0,0 l/m 2 min 0 min 337 W/m 16,1 km/h (3 Bft) 97,87 %
09.03.2020 16:20 10,2 C 12,2 C 11,1 C 72 % 1014,5 hPa 0,0 l/m 2 min 0 min 237 W/m 9,7 km/h (2 Bft) 100,00 %
09.03.2020 16:22 10,2 C 12,2 C 11,1 C 74 % 1014,5 hPa 0,0 l/m 2 min 0 min 332 W/m 3,2 km/h (1 Bft) 100,00 %
09.03.2020 16:24 10,3 C 11,1 C 10,0 C 73 % 1014,4 hPa 0,0 l/m 0 min 0 min 100 W/m 9,7 km/h (2 Bft) 100,00 %
09.03.2020 16:26 10,3 C 10,0 C 9,4 C 73 % 1014,5 hPa 0,0 l/m 0 min 0 min 67 W/m 12,9 km/h (3 Bft) 100,00 %
09.03.2020 16:28 10,2 C 9,4 C 9,4 C 72 % 1014,5 hPa 0,0 l/m 0 min 0 min 72 W/m 6,4 km/h (2 Bft) 100,00 %
09.03.2020 16:30 10,2 C 9,4 C 8,9 C 72 % 1014,5 hPa 0,0 l/m 0 min 0 min 88 W/m 16,1 km/h (3 Bft) 100,00 %
09.03.2020 16:32 10,2 C 9,4 C 8,9 C 72 % 1014,5 hPa 0,0 l/m 0 min 0 min 97 W/m 12,9 km/h (3 Bft) 100,00 %
09.03.2020 16:34 10,1 C 9,4 C 8,9 C 72 % 1014,6 hPa 0,0 l/m 0 min 0 min 87 W/m 12,9 km/h (3 Bft) 97,83 %
09.03.2020 16:36 10,1 C 9,4 C 8,9 C 73 % 1014,5 hPa 0,0 l/m 0 min 0 min 70 W/m 3,2 km/h (1 Bft) 98,00 %
09.03.2020 16:38 10,1 C 9,4 C 8,9 C 73 % 1014,5 hPa 0,0 l/m 0 min 0 min 62 W/m 3,2 km/h (1 Bft) 100,00 %
09.03.2020 16:40 10,1 C 9,4 C 8,9 C 74 % 1014,5 hPa 0,0 l/m 0 min 0 min 56 W/m 0,0 km/h (0 Bft) 100,00 %
09.03.2020 16:42 10,0 C 9,4 C 8,9 C 74 % 1014,5 hPa 0,0 l/m 0 min 0 min 42 W/m 0,0 km/h (0 Bft) 98,15 %
09.03.2020 16:44 10,0 C 8,9 C 8,9 C 74 % 1014,6 hPa 0,0 l/m 0 min 0 min 33 W/m 0,0 km/h (0 Bft) 100,00 %
09.03.2020 16:46 9,9 C 8,9 C 8,3 C 74 % 1014,6 hPa 0,0 l/m 0 min 0 min 31 W/m 9,7 km/h (2 Bft) 95,74 %
09.03.2020 16:48 9,9 C 8,9 C 8,3 C 74 % 1014,6 hPa 0,0 l/m 0 min 0 min 35 W/m 16,1 km/h (3 Bft) 96,00 %
09.03.2020 16:50 9,9 C 8,9 C 8,3 C 74 % 1014,6 hPa 0,0 l/m 0 min 0 min 51 W/m 6,4 km/h (2 Bft) 100,00 %
09.03.2020 16:52 9,8 C 8,9 C 8,3 C 74 % 1014,6 hPa 0,0 l/m 0 min 0 min 70 W/m 12,9 km/h (3 Bft) 100,00 %
09.03.2020 16:54 9,8 C 8,9 C 8,3 C 74 % 1014,6 hPa 0,0 l/m 0 min 0 min 70 W/m 19,3 km/h (3 Bft) 95,12 %
09.03.2020 16:56 9,8 C 8,9 C 8,3 C 74 % 1014,6 hPa 0,0 l/m 0 min 0 min 62 W/m 6,4 km/h (2 Bft) 100,00 %
09.03.2020 16:58 9,7 C 8,9 C 8,3 C 74 % 1014,6 hPa 0,0 l/m 0 min 0 min 43 W/m 3,2 km/h (1 Bft) 96,36 %
09.03.2020 17:00 9,7 C 8,9 C 8,3 C 75 % 1014,7 hPa 0,0 l/m 0 min 0 min 24 W/m 3,2 km/h (1 Bft) 100,00 %
09.03.2020 17:02 9,7 C 8,9 C 8,3 C 75 % 1014,7 hPa 0,0 l/m 0 min 0 min 18 W/m 6,4 km/h (2 Bft) 100,00 %
09.03.2020 17:04 9,7 C 8,9 C 8,3 C 75 % 1014,7 hPa 0,0 l/m 0 min 0 min 15 W/m 16,1 km/h (3 Bft) 100,00 %
09.03.2020 17:06 9,6 C 8,9 C 8,3 C 75 % 1014,7 hPa 0,0 l/m 0 min 0 min 12 W/m 3,2 km/h (1 Bft) 100,00 %
09.03.2020 17:08 9,6 C 8,3 C 8,3 C 75 % 1014,7 hPa 0,0 l/m 0 min 0 min 11 W/m 0,0 km/h (0 Bft) 97,83 %
09.03.2020 17:10 9,6 C 8,3 C 8,3 C 75 % 1014,8 hPa 0,0 l/m 0 min 0 min 11 W/m 6,4 km/h (2 Bft) 97,96 %
09.03.2020 17:12 9,6 C 8,3 C 7,8 C 75 % 1014,8 hPa 0,0 l/m 0 min 2 min 14 W/m 12,9 km/h (3 Bft) 100,00 %
09.03.2020 17:14 9,5 C 8,3 C 7,8 C 76 % 1014,9 hPa 0,0 l/m 0 min 0 min 16 W/m 12,9 km/h (3 Bft) 98,15 %
09.03.2020 17:16 9,5 C 8,3 C 7,8 C 76 % 1014,9 hPa 0,0 l/m 0 min 0 min 21 W/m 19,3 km/h (3 Bft) 97,87 %
09.03.2020 17:18 9,4 C 8,3 C 7,8 C 76 % 1015,0 hPa 0,0 l/m 0 min 0 min 32 W/m 12,9 km/h (3 Bft) 100,00 %
09.03.2020 17:20 9,4 C 8,3 C 7,8 C 77 % 1015,0 hPa 0,0 l/m 0 min 0 min 43 W/m 9,7 km/h (2 Bft) 94,74 %
09.03.2020 17:22 9,4 C 8,9 C 7,8 C 77 % 1015,0 hPa 0,0 l/m 0 min 0 min 49 W/m 9,7 km/h (2 Bft) 94,00 %
09.03.2020 17:24 9,4 C 8,9 C 7,8 C 77 % 1015,0 hPa 0,0 l/m 0 min 0 min 54 W/m 9,7 km/h (2 Bft) 93,75 %
09.03.2020 17:26 9,3 C 8,9 C 7,8 C 78 % 1015,1 hPa 0,0 l/m 0 min 0 min 63 W/m 9,7 km/h (2 Bft) 93,48 %
09.03.2020 17:28 9,3 C 8,9 C 8,3 C 77 % 1015,1 hPa 0,0 l/m 2 min 0 min 79 W/m 9,7 km/h (2 Bft) 95,45 %
09.03.2020 17:30 9,3 C 8,9 C 8,3 C 77 % 1015,1 hPa 0,0 l/m 2 min 0 min 90 W/m 9,7 km/h (2 Bft) 96,00 %
09.03.2020 17:32 9,3 C 8,9 C 8,3 C 77 % 1015,1 hPa 0,0 l/m 2 min 0 min 83 W/m 6,4 km/h (2 Bft) 93,48 %
09.03.2020 17:34 9,2 C 8,9 C 8,3 C 77 % 1015,2 hPa 0,0 l/m 2 min 0 min 71 W/m 0,0 km/h (0 Bft) 93,88 %
09.03.2020 17:36 9,2 C 8,9 C 8,3 C 77 % 1015,2 hPa 0,0 l/m 0 min 0 min 61 W/m 6,4 km/h (2 Bft) 95,74 %
09.03.2020 17:38 9,2 C 8,9 C 8,3 C 76 % 1015,2 hPa 0,0 l/m 0 min 0 min 54 W/m 32,2 km/h (5 Bft) 95,65 %
09.03.2020 17:40 9,2 C 8,3 C 7,8 C 75 % 1015,2 hPa 0,0 l/m 0 min 0 min 55 W/m 12,9 km/h (3 Bft) 95,35 %
09.03.2020 17:42 9,2 C 8,3 C 7,8 C 75 % 1015,2 hPa 0,0 l/m 2 min 0 min 56 W/m 0,0 km/h (0 Bft) 54,35 %
09.03.2020 17:44 9,2 C 8,3 C 7,8 C 75 % 1015,2 hPa 0,0 l/m 2 min 0 min 53 W/m 9,7 km/h (2 Bft) 93,88 %
09.03.2020 17:46 9,1 C 8,3 C 7,8 C 75 % 1015,3 hPa 0,0 l/m 2 min 0 min 53 W/m 12,9 km/h (3 Bft) 95,74 %
09.03.2020 17:48 9,1 C 8,3 C 7,8 C 75 % 1015,3 hPa 0,0 l/m 2 min 0 min 54 W/m 12,9 km/h (3 Bft) 95,74 %
09.03.2020 17:50 9,1 C 8,3 C 7,8 C 75 % 1015,3 hPa 0,0 l/m 2 min 0 min 54 W/m 12,9 km/h (3 Bft) 95,12 %
09.03.2020 17:52 9,1 C 8,3 C 7,8 C 75 % 1015,3 hPa 0,0 l/m 2 min 0 min 48 W/m 9,7 km/h (2 Bft) 96,00 %
09.03.2020 17:54 9,1 C 8,3 C 7,8 C 75 % 1015,3 hPa 0,0 l/m 0 min 0 min 38 W/m 16,1 km/h (3 Bft) 95,65 %
09.03.2020 17:56 9,1 C 8,3 C 7,8 C 75 % 1015,3 hPa 0,0 l/m 0 min 0 min 31 W/m 12,9 km/h (3 Bft) 95,74 %
09.03.2020 17:58 9,0 C 7,8 C 7,8 C 75 % 1015,4 hPa 0,0 l/m 0 min 0 min 26 W/m 6,4 km/h (2 Bft) 95,74 %
09.03.2020 18:00 9,0 C 7,8 C 7,2 C 76 % 1015,4 hPa 0,0 l/m 0 min 0 min 23 W/m 6,4 km/h (2 Bft) 95,74 %
09.03.2020 18:02 8,9 C 7,8 C 7,2 C 76 % 1015,4 hPa 0,0 l/m 0 min 0 min 19 W/m 25,7 km/h (4 Bft) 93,62 %
09.03.2020 18:04 8,9 C 7,8 C 7,2 C 76 % 1015,4 hPa 0,0 l/m 0 min 0 min 18 W/m 6,4 km/h (2 Bft) 96,00 %
09.03.2020 18:08 8,8 C 7,8 C 7,2 C 76 % 1015,4 hPa 0,0 l/m 0 min 0 min 18 W/m 9,7 km/h (2 Bft) 97,92 %
09.03.2020 18:10 8,8 C 7,2 C 7,2 C 76 % 1015,4 hPa 0,0 l/m 0 min 0 min 18 W/m 0,0 km/h (0 Bft) 97,87 %
09.03.2020 18:12 8,7 C 7,2 C 7,2 C 76 % 1015,4 hPa 0,0 l/m 0 min 0 min 15 W/m 0,0 km/h (0 Bft) 97,30 %
09.03.2020 18:14 8,7 C 7,2 C 6,7 C 77 % 1015,4 hPa 0,0 l/m 0 min 0 min 13 W/m 6,4 km/h (2 Bft) 97,87 %
09.03.2020 18:16 8,6 C 7,2 C 6,7 C 77 % 1015,5 hPa 0,0 l/m 0 min 0 min 11 W/m 3,2 km/h (1 Bft) 97,87 %
09.03.2020 18:18 8,6 C 7,2 C 6,7 C 77 % 1015,5 hPa 0,0 l/m 0 min 0 min 9 W/m 0,0 km/h (0 Bft) 96,23 %
09.03.2020 18:20 8,6 C 7,2 C 6,7 C 77 % 1015,5 hPa 0,0 l/m 0 min 0 min 6 W/m 0,0 km/h (0 Bft) 96,00 %
09.03.2020 18:22 8,5 C 7,2 C 6,7 C 78 % 1015,4 hPa 0,0 l/m 0 min 0 min 5 W/m 3,2 km/h (1 Bft) 97,37 %
09.03.2020 18:24 8,4 C 7,2 C 6,7 C 78 % 1015,5 hPa 0,0 l/m 0 min 0 min 2 W/m 0,0 km/h (0 Bft) 100,00 %
09.03.2020 18:26 8,4 C 7,2 C 6,7 C 78 % 1015,5 hPa 0,0 l/m 0 min 0 min 0 W/m 0,0 km/h (0 Bft) 95,74 %
09.03.2020 18:28 8,4 C 7,2 C 6,7 C 78 % 1015,5 hPa 0,0 l/m 0 min 0 min 0 W/m 0,0 km/h (0 Bft) 97,87 %
09.03.2020 18:30 8,3 C 7,2 C 6,7 C 78 % 1015,5 hPa 0,0 l/m 0 min 0 min 0 W/m 0,0 km/h (0 Bft) 93,48 %
09.03.2020 18:32 8,3 C 7,2 C 6,7 C 78 % 1015,5 hPa 0,0 l/m 0 min 0 min 0 W/m 0,0 km/h (0 Bft) 95,74 %
09.03.2020 18:34 8,3 C 7,2 C 6,7 C 79 % 1015,5 hPa 0,0 l/m 0 min 0 min 0 W/m 0,0 km/h (0 Bft) 93,62 %
09.03.2020 18:36 8,2 C 7,2 C 6,7 C 79 % 1015,5 hPa 0,0 l/m 0 min 0 min 0 W/m 0,0 km/h (0 Bft) 97,92 %
09.03.2020 18:38 8,2 C 7,2 C 6,7 C 79 % 1015,5 hPa 0,0 l/m 0 min 0 min 0 W/m 0,0 km/h (0 Bft) 95,74 %
09.03.2020 18:40 8,2 C 7,2 C 6,7 C 79 % 1015,5 hPa 0,0 l/m 0 min 0 min 0 W/m 0,0 km/h (0 Bft) 97,87 %
09.03.2020 18:42 8,2 C 7,2 C 6,7 C 79 % 1015,5 hPa 0,0 l/m 0 min 0 min 0 W/m 6,4 km/h (2 Bft) 95,74 %
09.03.2020 18:44 8,1 C 7,2 C 6,7 C 79 % 1015,5 hPa 0,0 l/m 0 min 0 min 0 W/m 3,2 km/h (1 Bft) 97,92 %
09.03.2020 18:46 8,1 C 7,2 C 6,7 C 79 % 1015,5 hPa 0,0 l/m 0 min 0 min 0 W/m 3,2 km/h (1 Bft) 97,87 %
09.03.2020 18:48 8,1 C 7,2 C 6,7 C 79 % 1015,5 hPa 0,0 l/m 0 min 0 min 0 W/m 0,0 km/h (0 Bft) 97,83 %
09.03.2020 18:50 8,1 C 7,2 C 6,7 C 79 % 1015,5 hPa 0,0 l/m 0 min 0 min 0 W/m 6,4 km/h (2 Bft) 97,87 %
09.03.2020 18:52 8,1 C 7,2 C 6,7 C 79 % 1015,4 hPa 0,0 l/m 0 min 0 min 0 W/m 3,2 km/h (1 Bft) 97,87 %
09.03.2020 18:54 8,1 C 7,2 C 6,7 C 79 % 1015,4 hPa 0,0 l/m 0 min 0 min 0 W/m 12,9 km/h (3 Bft) 95,83 %
09.03.2020 18:56 8,1 C 7,2 C 6,7 C 79 % 1015,3 hPa 0,0 l/m 0 min 0 min 0 W/m 6,4 km/h (2 Bft) 97,87 %
09.03.2020 18:58 8,1 C 7,2 C 6,7 C 79 % 1015,3 hPa 0,0 l/m 0 min 0 min 0 W/m 0,0 km/h (0 Bft) 97,67 %
09.03.2020 19:00 8,1 C 7,2 C 6,7 C 79 % 1015,3 hPa 0,0 l/m 0 min 0 min 0 W/m 3,2 km/h (1 Bft) 95,74 %
09.03.2020 19:02 8,1 C 7,2 C 6,7 C 79 % 1015,3 hPa 0,0 l/m 0 min 0 min 0 W/m 12,9 km/h (3 Bft) 97,87 %
09.03.2020 19:04 8,1 C 7,2 C 6,7 C 79 % 1015,4 hPa 0,0 l/m 0 min 0 min 0 W/m 3,2 km/h (1 Bft) 97,87 %
09.03.2020 19:06 8,1 C 7,2 C 7,2 C 79 % 1015,4 hPa 0,0 l/m 0 min 0 min 0 W/m 0,0 km/h (0 Bft) 97,96 %
09.03.2020 19:08 8,1 C 7,2 C 7,2 C 79 % 1015,4 hPa 0,0 l/m 0 min 0 min 0 W/m 0,0 km/h (0 Bft) 97,87 %
09.03.2020 19:10 8,1 C 7,2 C 7,2 C 79 % 1015,4 hPa 0,0 l/m 0 min 0 min 0 W/m 0,0 km/h (0 Bft) 100,00 %
09.03.2020 19:12 8,1 C 7,2 C 6,7 C 80 % 1015,5 hPa 0,0 l/m 0 min 0 min 0 W/m 0,0 km/h (0 Bft) 100,00 %
09.03.2020 19:14 8,1 C 7,2 C 7,2 C 80 % 1015,5 hPa 0,0 l/m 0 min 0 min 0 W/m 0,0 km/h (0 Bft) 100,00 %
09.03.2020 19:16 8,1 C 7,2 C 6,7 C 80 % 1015,5 hPa 0,0 l/m 0 min 0 min 0 W/m 6,4 km/h (2 Bft) 97,87 %
09.03.2020 19:18 8,1 C 7,2 C 7,2 C 80 % 1015,5 hPa 0,0 l/m 0 min 0 min 0 W/m 16,1 km/h (3 Bft) 100,00 %
09.03.2020 19:20 8,1 C 7,2 C 6,7 C 80 % 1015,5 hPa 0,0 l/m 0 min 0 min 0 W/m 0,0 km/h (0 Bft) 100,00 %
09.03.2020 19:22 8,1 C 7,2 C 6,7 C 80 % 1015,5 hPa 0,0 l/m 0 min 0 min 0 W/m 0,0 km/h (0 Bft) 100,00 %
09.03.2020 19:24 8,1 C 7,2 C 6,7 C 80 % 1015,5 hPa 0,0 l/m 0 min 0 min 0 W/m 0,0 km/h (0 Bft) 100,00 %
09.03.2020 19:26 8,1 C 7,2 C 6,7 C 80 % 1015,5 hPa 0,0 l/m 0 min 0 min 0 W/m 0,0 km/h (0 Bft) 97,92 %
09.03.2020 19:28 8,1 C 7,2 C 6,7 C 80 % 1015,5 hPa 0,0 l/m 0 min 0 min 0 W/m 0,0 km/h (0 Bft) 97,14 %
09.03.2020 19:30 8,1 C 7,2 C 6,7 C 80 % 1015,5 hPa 0,0 l/m 0 min 0 min 0 W/m 12,9 km/h (3 Bft) 98,15 %
09.03.2020 19:32 8,1 C 7,2 C 6,7 C 80 % 1015,5 hPa 0,0 l/m 0 min 0 min 0 W/m 6,4 km/h (2 Bft) 97,87 %
09.03.2020 19:34 8,1 C 7,2 C 6,7 C 81 % 1015,4 hPa 0,0 l/m 0 min 0 min 0 W/m 0,0 km/h (0 Bft) 100,00 %
09.03.2020 19:36 8,1 C 7,2 C 6,7 C 81 % 1015,5 hPa 0,0 l/m 0 min 0 min 0 W/m 6,4 km/h (2 Bft) 100,00 %
09.03.2020 19:38 8,1 C 7,2 C 6,7 C 81 % 1015,4 hPa 0,0 l/m 0 min 0 min 0 W/m 12,9 km/h (3 Bft) 100,00 %
09.03.2020 19:40 8,1 C 7,2 C 6,7 C 81 % 1015,4 hPa 0,0 l/m 0 min 0 min 0 W/m 6,4 km/h (2 Bft) 97,87 %
09.03.2020 19:42 8,1 C 7,2 C 6,7 C 81 % 1015,4 hPa 0,0 l/m 0 min 0 min 0 W/m 12,9 km/h (3 Bft) 100,00 %
09.03.2020 19:44 8,1 C 7,2 C 6,7 C 81 % 1015,4 hPa 0,0 l/m 0 min 0 min 0 W/m 3,2 km/h (1 Bft) 97,22 %
09.03.2020 19:46 8,1 C 7,2 C 6,7 C 81 % 1015,3 hPa 0,0 l/m 0 min 0 min 0 W/m 3,2 km/h (1 Bft) 97,92 %
09.03.2020 19:48 8,1 C 7,2 C 6,7 C 81 % 1015,3 hPa 0,0 l/m 0 min 0 min 0 W/m 12,9 km/h (3 Bft) 97,87 %
09.03.2020 19:50 8,1 C 7,2 C 6,7 C 81 % 1015,4 hPa 0,0 l/m 0 min 0 min 0 W/m 12,9 km/h (3 Bft) 95,83 %
09.03.2020 19:52 8,1 C 7,2 C 6,7 C 82 % 1015,3 hPa 0,0 l/m 0 min 0 min 0 W/m 0,0 km/h (0 Bft) 97,92 %
09.03.2020 19:54 8,1 C 7,2 C 6,7 C 82 % 1015,3 hPa 0,0 l/m 0 min 0 min 0 W/m 3,2 km/h (1 Bft) 97,92 %
09.03.2020 19:56 8,1 C 7,2 C 6,7 C 82 % 1015,3 hPa 0,0 l/m 0 min 0 min 0 W/m 12,9 km/h (3 Bft) 97,87 %
09.03.2020 19:58 8,1 C 7,2 C 6,7 C 82 % 1015,2 hPa 0,0 l/m 0 min 0 min 0 W/m 6,4 km/h (2 Bft) 97,87 %
09.03.2020 20:00 8,1 C 7,2 C 6,7 C 82 % 1015,3 hPa 0,0 l/m 0 min 0 min 0 W/m 0,0 km/h (0 Bft) 95,74 %
09.03.2020 20:02 8,0 C 7,2 C 6,7 C 82 % 1015,3 hPa 0,0 l/m 0 min 0 min 0 W/m 0,0 km/h (0 Bft) 95,74 %
09.03.2020 20:04 8,0 C 7,2 C 6,7 C 82 % 1015,3 hPa 0,0 l/m 0 min 0 min 0 W/m 0,0 km/h (0 Bft) 97,87 %
09.03.2020 20:06 8,0 C 7,2 C 6,7 C 82 % 1015,3 hPa 0,0 l/m 0 min 0 min 0 W/m 0,0 km/h (0 Bft) 97,92 %
09.03.2020 20:08 8,0 C 7,2 C 6,7 C 82 % 1015,3 hPa 0,0 l/m 0 min 0 min 0 W/m 0,0 km/h (0 Bft) 97,87 %
09.03.2020 20:10 8,0 C 7,2 C 6,7 C 83 % 1015,3 hPa 0,0 l/m 0 min 0 min 0 W/m 0,0 km/h (0 Bft) 97,83 %
09.03.2020 20:12 8,0 C 7,2 C 6,7 C 83 % 1015,3 hPa 0,0 l/m 0 min 0 min 0 W/m 0,0 km/h (0 Bft) 97,87 %
09.03.2020 20:14 8,0 C 7,2 C 6,7 C 83 % 1015,2 hPa 0,0 l/m 0 min 0 min 0 W/m 0,0 km/h (0 Bft) 97,92 %
09.03.2020 20:16 8,0 C 7,2 C 6,7 C 83 % 1015,3 hPa 0,0 l/m 0 min 0 min 0 W/m 0,0 km/h (0 Bft) 95,74 %
09.03.2020 20:18 7,9 C 7,2 C 6,7 C 83 % 1015,2 hPa 0,0 l/m 0 min 0 min 0 W/m 0,0 km/h (0 Bft) 95,74 %
09.03.2020 20:20 8,0 C 7,2 C 6,7 C 83 % 1015,2 hPa 0,0 l/m 0 min 0 min 0 W/m 0,0 km/h (0 Bft) 97,83 %
09.03.2020 20:22 7,9 C 7,2 C 6,1 C 83 % 1015,2 hPa 0,0 l/m 0 min 0 min 0 W/m 0,0 km/h (0 Bft) 97,87 %
09.03.2020 20:24 7,9 C 6,7 C 6,1 C 83 % 1015,2 hPa 0,0 l/m 0 min 0 min 0 W/m 0,0 km/h (0 Bft) 100,00 %
09.03.2020 20:26 7,9 C 6,7 C 6,1 C 83 % 1015,1 hPa 0,0 l/m 0 min 0 min 0 W/m 0,0 km/h (0 Bft) 100,00 %
09.03.2020 20:28 7,9 C 6,7 C 6,1 C 83 % 1015,1 hPa 0,0 l/m 0 min 0 min 0 W/m 0,0 km/h (0 Bft) 100,00 %
09.03.2020 20:30 7,9 C 6,7 C 6,1 C 83 % 1015,1 hPa 0,0 l/m 0 min 0 min 0 W/m 0,0 km/h (0 Bft) 100,00 %
09.03.2020 20:32 7,9 C 6,7 C 6,1 C 84 % 1015,1 hPa 0,0 l/m 0 min 0 min 0 W/m 0,0 km/h (0 Bft) 100,00 %
09.03.2020 20:34 7,8 C 6,7 C 6,1 C 84 % 1015,2 hPa 0,0 l/m 0 min 0 min 0 W/m 0,0 km/h (0 Bft) 100,00 %
09.03.2020 20:36 7,8 C 6,7 C 6,1 C 84 % 1015,2 hPa 0,0 l/m 0 min 0 min 0 W/m 0,0 km/h (0 Bft) 100,00 %
09.03.2020 20:38 7,8 C 6,7 C 6,1 C 84 % 1015,1 hPa 0,0 l/m 0 min 0 min 0 W/m 0,0 km/h (0 Bft) 100,00 %
09.03.2020 20:40 7,8 C 6,7 C 6,1 C 84 % 1015,1 hPa 0,0 l/m 0 min 0 min 0 W/m 0,0 km/h (0 Bft) 97,87 %
09.03.2020 20:42 7,8 C 6,7 C 6,1 C 84 % 1015,1 hPa 0,0 l/m 0 min 0 min 0 W/m 0,0 km/h (0 Bft) 100,00 %
09.03.2020 20:44 7,8 C 6,7 C 6,1 C 84 % 1015,1 hPa 0,0 l/m 0 min 0 min 0 W/m 0,0 km/h (0 Bft) 97,83 %
09.03.2020 20:46 7,7 C 6,7 C 6,1 C 84 % 1015,2 hPa 0,0 l/m 0 min 0 min 0 W/m 0,0 km/h (0 Bft) 100,00 %
09.03.2020 20:48 7,7 C 6,7 C 6,7 C 85 % 1015,2 hPa 0,0 l/m 0 min 0 min 0 W/m 6,4 km/h (2 Bft) 97,87 %
09.03.2020 20:50 7,7 C 7,2 C 6,7 C 85 % 1015,1 hPa 0,0 l/m 0 min 0 min 0 W/m 12,9 km/h (3 Bft) 100,00 %
09.03.2020 20:52 7,7 C 7,2 C 6,7 C 85 % 1015,0 hPa 0,0 l/m 0 min 0 min 0 W/m 0,0 km/h (0 Bft) 97,87 %
09.03.2020 20:54 7,7 C 7,2 C 6,7 C 85 % 1015,0 hPa 0,0 l/m 0 min 0 min 0 W/m 6,4 km/h (2 Bft) 100,00 %
09.03.2020 20:56 7,7 C 7,2 C 6,7 C 85 % 1015,0 hPa 0,0 l/m 0 min 0 min 0 W/m 16,1 km/h (3 Bft) 100,00 %
09.03.2020 20:58 7,7 C 7,2 C 6,7 C 85 % 1014,9 hPa 0,0 l/m 0 min 0 min 0 W/m 16,1 km/h (3 Bft) 97,87 %
09.03.2020 21:00 7,7 C 7,2 C 6,7 C 85 % 1015,0 hPa 0,0 l/m 0 min 0 min 0 W/m 16,1 km/h (3 Bft) 100,00 %
09.03.2020 21:02 7,7 C 7,2 C 6,7 C 85 % 1015,0 hPa 0,0 l/m 0 min 0 min 0 W/m 16,1 km/h (3 Bft) 100,00 %
09.03.2020 21:04 7,7 C 7,2 C 6,7 C 85 % 1015,0 hPa 0,0 l/m 0 min 0 min 0 W/m 6,4 km/h (2 Bft) 100,00 %
09.03.2020 21:06 7,7 C 7,2 C 6,7 C 85 % 1015,1 hPa 0,0 l/m 0 min 0 min 0 W/m 0,0 km/h (0 Bft) 97,87 %
09.03.2020 21:08 7,7 C 7,2 C 6,7 C 85 % 1015,1 hPa 0,0 l/m 0 min 0 min 0 W/m 0,0 km/h (0 Bft) 97,83 %
09.03.2020 21:10 7,7 C 7,2 C 6,7 C 86 % 1015,1 hPa 0,0 l/m 0 min 0 min 0 W/m 0,0 km/h (0 Bft) 100,00 %
09.03.2020 21:12 7,7 C 7,2 C 6,7 C 86 % 1015,0 hPa 0,0 l/m 0 min 0 min 0 W/m 3,2 km/h (1 Bft) 95,74 %
09.03.2020 21:14 7,7 C 7,2 C 6,7 C 86 % 1015,0 hPa 0,0 l/m 0 min 0 min 0 W/m 16,1 km/h (3 Bft) 91,49 %
09.03.2020 21:16 7,7 C 7,2 C 6,7 C 86 % 1014,9 hPa 0,0 l/m 0 min 0 min 0 W/m 19,3 km/h (3 Bft) 95,74 %
09.03.2020 21:18 7,7 C 7,2 C 6,7 C 86 % 1014,9 hPa 0,0 l/m 0 min 0 min 0 W/m 19,3 km/h (3 Bft) 95,74 %
09.03.2020 21:20 7,8 C 7,2 C 6,7 C 86 % 1014,9 hPa 0,0 l/m 0 min 0 min 0 W/m 16,1 km/h (3 Bft) 95,65 %
09.03.2020 21:22 7,8 C 7,2 C 6,7 C 86 % 1014,9 hPa 0,0 l/m 0 min 0 min 0 W/m 19,3 km/h (3 Bft) 95,74 %
09.03.2020 21:24 7,8 C 7,2 C 6,7 C 85 % 1014,9 hPa 0,0 l/m 0 min 0 min 0 W/m 22,5 km/h (4 Bft) 93,62 %
09.03.2020 21:26 7,8 C 7,2 C 6,7 C 85 % 1014,9 hPa 0,0 l/m 0 min 0 min 0 W/m 16,1 km/h (3 Bft) 95,74 %
09.03.2020 21:28 7,8 C 7,2 C 6,7 C 85 % 1014,8 hPa 0,0 l/m 0 min 0 min 0 W/m 12,9 km/h (3 Bft) 95,74 %
09.03.2020 21:30 7,8 C 7,2 C 6,7 C 85 % 1014,9 hPa 0,0 l/m 0 min 0 min 0 W/m 19,3 km/h (3 Bft) 93,48 %
09.03.2020 21:32 7,8 C 7,2 C 6,7 C 85 % 1014,9 hPa 0,0 l/m 0 min 0 min 0 W/m 19,3 km/h (3 Bft) 93,62 %
09.03.2020 21:34 7,8 C 7,2 C 6,7 C 85 % 1014,8 hPa 0,0 l/m 0 min 0 min 0 W/m 19,3 km/h (3 Bft) 95,74 %
09.03.2020 21:36 7,8 C 7,2 C 6,7 C 85 % 1014,8 hPa 0,0 l/m 0 min 0 min 0 W/m 16,1 km/h (3 Bft) 93,62 %
09.03.2020 21:38 7,9 C 7,2 C 6,7 C 85 % 1014,8 hPa 0,0 l/m 0 min 0 min 0 W/m 22,5 km/h (4 Bft) 95,74 %
09.03.2020 21:40 7,9 C 7,2 C 6,7 C 85 % 1014,8 hPa 0,0 l/m 0 min 0 min 0 W/m 16,1 km/h (3 Bft) 95,74 %
09.03.2020 21:42 7,9 C 7,2 C 6,7 C 85 % 1014,8 hPa 0,0 l/m 0 min 0 min 0 W/m 22,5 km/h (4 Bft) 95,65 %
09.03.2020 21:44 7,9 C 7,2 C 6,7 C 84 % 1014,7 hPa 0,0 l/m 0 min 0 min 0 W/m 16,1 km/h (3 Bft) 95,74 %
09.03.2020 21:46 7,9 C 7,2 C 6,7 C 84 % 1014,7 hPa 0,0 l/m 0 min 0 min 0 W/m 19,3 km/h (3 Bft) 95,74 %
09.03.2020 21:48 8,0 C 7,8 C 7,2 C 84 % 1014,7 hPa 0,0 l/m 0 min 0 min 0 W/m 25,7 km/h (4 Bft) 93,62 %
09.03.2020 21:50 8,0 C 7,2 C 6,7 C 84 % 1014,7 hPa 0,0 l/m 0 min 0 min 0 W/m 19,3 km/h (3 Bft) 93,62 %
09.03.2020 21:52 8,1 C 7,8 C 7,2 C 84 % 1014,7 hPa 0,0 l/m 0 min 0 min 0 W/m 32,2 km/h (5 Bft) 95,74 %
09.03.2020 21:54 8,1 C 7,8 C 7,2 C 84 % 1014,8 hPa 0,0 l/m 0 min 0 min 0 W/m 32,2 km/h (5 Bft) 95,65 %
09.03.2020 21:56 8,1 C 7,2 C 6,7 C 83 % 1014,8 hPa 0,0 l/m 0 min 0 min 0 W/m 16,1 km/h (3 Bft) 97,87 %
09.03.2020 21:58 8,1 C 7,2 C 6,7 C 83 % 1014,7 hPa 0,0 l/m 0 min 0 min 0 W/m 16,1 km/h (3 Bft) 95,74 %
09.03.2020 22:00 8,1 C 7,2 C 6,7 C 83 % 1014,7 hPa 0,0 l/m 0 min 0 min 0 W/m 19,3 km/h (3 Bft) 95,74 %
09.03.2020 22:02 8,1 C 7,8 C 7,2 C 83 % 1014,8 hPa 0,0 l/m 0 min 0 min 0 W/m 19,3 km/h (3 Bft) 95,74 %
09.03.2020 22:04 8,1 C 7,8 C 7,2 C 83 % 1014,7 hPa 0,0 l/m 0 min 0 min 0 W/m 22,5 km/h (4 Bft) 97,87 %
09.03.2020 22:06 8,1 C 7,8 C 7,2 C 83 % 1014,7 hPa 0,0 l/m 0 min 0 min 0 W/m 32,2 km/h (5 Bft) 97,83 %
09.03.2020 22:08 8,2 C 7,8 C 7,2 C 83 % 1014,6 hPa 0,0 l/m 0 min 0 min 0 W/m 32,2 km/h (5 Bft) 97,87 %
09.03.2020 22:10 8,2 C 7,8 C 7,2 C 83 % 1014,6 hPa 0,0 l/m 0 min 0 min 0 W/m 22,5 km/h (4 Bft) 95,74 %
09.03.2020 22:12 8,2 C 7,8 C 7,2 C 83 % 1014,5 hPa 0,0 l/m 0 min 0 min 0 W/m 19,3 km/h (3 Bft) 97,87 %
09.03.2020 22:14 8,2 C 7,8 C 7,2 C 83 % 1014,5 hPa 0,0 l/m 0 min 0 min 0 W/m 25,7 km/h (4 Bft) 95,74 %
09.03.2020 22:16 8,2 C 7,8 C 7,2 C 82 % 1014,4 hPa 0,0 l/m 0 min 0 min 0 W/m 19,3 km/h (3 Bft) 97,83 %
09.03.2020 22:18 8,2 C 7,8 C 7,2 C 82 % 1014,5 hPa 0,0 l/m 0 min 0 min 0 W/m 22,5 km/h (4 Bft) 97,87 %
09.03.2020 22:20 8,2 C 7,2 C 6,7 C 82 % 1014,4 hPa 0,0 l/m 0 min 0 min 0 W/m 16,1 km/h (3 Bft) 95,74 %
09.03.2020 22:22 8,2 C 7,2 C 6,7 C 82 % 1014,4 hPa 0,0 l/m 0 min 0 min 0 W/m 16,1 km/h (3 Bft) 97,87 %
09.03.2020 22:24 8,2 C 7,2 C 6,7 C 82 % 1014,3 hPa 0,0 l/m 0 min 0 min 0 W/m 16,1 km/h (3 Bft) 97,87 %
09.03.2020 22:26 8,2 C 7,2 C 6,7 C 82 % 1014,2 hPa 0,0 l/m 0 min 0 min 0 W/m 16,1 km/h (3 Bft) 97,87 %
09.03.2020 22:28 8,2 C 7,2 C 6,7 C 82 % 1014,1 hPa 0,0 l/m 0 min 0 min 0 W/m 19,3 km/h (3 Bft) 97,83 %
09.03.2020 22:30 8,2 C 7,2 C 6,7 C 82 % 1014,2 hPa 0,0 l/m 0 min 0 min 0 W/m 19,3 km/h (3 Bft) 97,87 %
09.03.2020 22:32 8,2 C 7,2 C 6,7 C 82 % 1014,2 hPa 0,0 l/m 0 min 0 min 0 W/m 22,5 km/h (4 Bft) 97,87 %
09.03.2020 22:34 8,2 C 7,2 C 6,7 C 82 % 1014,2 hPa 0,0 l/m 0 min 0 min 0 W/m 19,3 km/h (3 Bft) 97,87 %
09.03.2020 22:36 8,2 C 7,2 C 6,7 C 82 % 1014,1 hPa 0,0 l/m 0 min 0 min 0 W/m 12,9 km/h (3 Bft) 97,87 %
09.03.2020 22:38 8,2 C 7,2 C 6,7 C 82 % 1014,1 hPa 0,0 l/m 0 min 0 min 0 W/m 19,3 km/h (3 Bft) 97,87 %
09.03.2020 22:40 8,1 C 7,2 C 6,7 C 82 % 1014,1 hPa 0,0 l/m 0 min 0 min 0 W/m 25,7 km/h (4 Bft) 97,83 %
09.03.2020 22:42 8,1 C 7,2 C 6,7 C 82 % 1014,1 hPa 0,0 l/m 0 min 0 min 0 W/m 19,3 km/h (3 Bft) 95,74 %
09.03.2020 22:44 8,1 C 7,2 C 6,7 C 82 % 1014,1 hPa 0,0 l/m 0 min 0 min 0 W/m 25,7 km/h (4 Bft) 97,87 %
09.03.2020 22:46 8,1 C 7,2 C 6,7 C 82 % 1014,1 hPa 0,0 l/m 0 min 0 min 0 W/m 19,3 km/h (3 Bft) 95,74 %
09.03.2020 22:48 8,1 C 7,2 C 6,7 C 82 % 1014,2 hPa 0,0 l/m 0 min 0 min 0 W/m 22,5 km/h (4 Bft) 97,87 %
09.03.2020 22:50 8,1 C 7,2 C 6,7 C 82 % 1014,3 hPa 0,0 l/m 0 min 0 min 0 W/m 22,5 km/h (4 Bft) 97,87 %
09.03.2020 22:52 8,1 C 7,2 C 6,7 C 81 % 1014,1 hPa 0,0 l/m 0 min 0 min 0 W/m 16,1 km/h (3 Bft) 100,00 %
09.03.2020 22:54 8,1 C 7,2 C 6,7 C 82 % 1014,0 hPa 0,0 l/m 0 min 0 min 0 W/m 19,3 km/h (3 Bft) 100,00 %
09.03.2020 22:56 8,1 C 7,2 C 6,7 C 81 % 1014,0 hPa 0,0 l/m 0 min 0 min 0 W/m 22,5 km/h (4 Bft) 97,87 %
09.03.2020 22:58 8,0 C 7,2 C 6,7 C 81 % 1014,2 hPa 0,0 l/m 0 min 0 min 0 W/m 29,0 km/h (5 Bft) 100,00 %
09.03.2020 23:00 8,0 C 7,2 C 6,7 C 81 % 1014,1 hPa 0,0 l/m 0 min 0 min 0 W/m 19,3 km/h (3 Bft) 100,00 %
09.03.2020 23:02 8,0 C 7,2 C 6,7 C 81 % 1014,0 hPa 0,0 l/m 0 min 0 min 0 W/m 19,3 km/h (3 Bft) 100,00 %
09.03.2020 23:04 8,0 C 7,2 C 6,7 C 81 % 1014,0 hPa 0,0 l/m 0 min 0 min 0 W/m 12,9 km/h (3 Bft) 100,00 %
09.03.2020 23:06 7,9 C 7,2 C 6,7 C 81 % 1013,9 hPa 0,0 l/m 0 min 0 min 0 W/m 22,5 km/h (4 Bft) 100,00 %
09.03.2020 23:08 7,9 C 7,2 C 6,7 C 81 % 1013,8 hPa 0,0 l/m 0 min 0 min 0 W/m 16,1 km/h (3 Bft) 100,00 %
09.03.2020 23:10 7,9 C 7,2 C 6,7 C 81 % 1013,8 hPa 0,0 l/m 0 min 0 min 0 W/m 16,1 km/h (3 Bft) 100,00 %
09.03.2020 23:12 7,9 C 7,2 C 6,7 C 81 % 1013,9 hPa 0,0 l/m 0 min 0 min 0 W/m 35,4 km/h (5 Bft) 100,00 %
09.03.2020 23:14 7,9 C 7,2 C 6,7 C 81 % 1013,9 hPa 0,0 l/m 0 min 0 min 0 W/m 19,3 km/h (3 Bft) 100,00 %
09.03.2020 23:16 7,9 C 7,2 C 6,7 C 81 % 1014,0 hPa 0,0 l/m 0 min 0 min 0 W/m 19,3 km/h (3 Bft) 100,00 %
09.03.2020 23:18 7,9 C 7,2 C 6,7 C 81 % 1013,9 hPa 0,0 l/m 0 min 0 min 0 W/m 22,5 km/h (4 Bft) 100,00 %
09.03.2020 23:20 7,9 C 7,2 C 6,7 C 81 % 1013,9 hPa 0,0 l/m 0 min 0 min 0 W/m 22,5 km/h (4 Bft) 100,00 %
09.03.2020 23:22 7,8 C 7,2 C 6,7 C 81 % 1014,0 hPa 0,0 l/m 0 min 0 min 0 W/m 19,3 km/h (3 Bft) 97,87 %
09.03.2020 23:24 7,8 C 7,2 C 6,7 C 81 % 1014,1 hPa 0,0 l/m 0 min 0 min 0 W/m 22,5 km/h (4 Bft) 97,87 %
09.03.2020 23:26 7,8 C 7,2 C 6,7 C 81 % 1014,0 hPa 0,0 l/m 0 min 0 min 0 W/m 22,5 km/h (4 Bft) 97,83 %
09.03.2020 23:28 7,8 C 7,2 C 6,7 C 81 % 1013,7 hPa 0,0 l/m 0 min 0 min 0 W/m 25,7 km/h (4 Bft) 100,00 %
09.03.2020 23:30 7,8 C 7,2 C 6,7 C 81 % 1013,8 hPa 0,0 l/m 0 min 0 min 0 W/m 19,3 km/h (3 Bft) 97,87 %
09.03.2020 23:32 7,8 C 7,2 C 6,7 C 81 % 1014,0 hPa 0,0 l/m 0 min 0 min 0 W/m 12,9 km/h (3 Bft) 100,00 %
09.03.2020 23:34 7,8 C 7,2 C 6,7 C 81 % 1013,9 hPa 0,0 l/m 0 min 0 min 0 W/m 29,0 km/h (5 Bft) 100,00 %
09.03.2020 23:36 7,8 C 7,2 C 6,7 C 81 % 1013,8 hPa 0,0 l/m 0 min 0 min 0 W/m 29,0 km/h (5 Bft) 97,87 %
09.03.2020 23:38 7,8 C 7,2 C 6,7 C 81 % 1013,6 hPa 0,0 l/m 0 min 0 min 0 W/m 32,2 km/h (5 Bft) 97,83 %
09.03.2020 23:40 7,8 C 7,2 C 6,7 C 81 % 1013,4 hPa 0,0 l/m 0 min 0 min 0 W/m 25,7 km/h (4 Bft) 95,74 %
09.03.2020 23:42 7,8 C 7,2 C 6,7 C 81 % 1013,4 hPa 0,0 l/m 0 min 0 min 0 W/m 22,5 km/h (4 Bft) 100,00 %
09.03.2020 23:44 7,8 C 7,2 C 6,7 C 81 % 1013,4 hPa 0,0 l/m 0 min 0 min 0 W/m 16,1 km/h (3 Bft) 100,00 %
09.03.2020 23:46 7,8 C 7,2 C 6,7 C 81 % 1013,4 hPa 0,0 l/m 0 min 0 min 0 W/m 29,0 km/h (5 Bft) 100,00 %
09.03.2020 23:48 7,8 C 7,2 C 6,7 C 80 % 1013,3 hPa 0,0 l/m 0 min 0 min 0 W/m 29,0 km/h (5 Bft) 100,00 %
09.03.2020 23:50 7,8 C 7,2 C 6,7 C 80 % 1013,3 hPa 0,0 l/m 0 min 0 min 0 W/m 29,0 km/h (5 Bft) 100,00 %
09.03.2020 23:52 7,8 C 7,2 C 6,7 C 80 % 1013,1 hPa 0,0 l/m 0 min 0 min 0 W/m 22,5 km/h (4 Bft) 100,00 %
09.03.2020 23:54 7,8 C 7,2 C 6,7 C 80 % 1012,9 hPa 0,0 l/m 0 min 0 min 0 W/m 32,2 km/h (5 Bft) 97,87 %
09.03.2020 23:56 7,8 C 7,2 C 6,7 C 80 % 1013,0 hPa 0,0 l/m 0 min 0 min 0 W/m 29,0 km/h (5 Bft) 97,87 %
09.03.2020 23:58 7,8 C 7,2 C 6,7 C 80 % 1012,8 hPa 0,0 l/m 0 min 0 min 0 W/m 41,8 km/h (6 Bft) 97,87 %
_ Min-Zeit 07:14 07:38 07:40 15:48 00:02 - - - - 00:10 05:02
Minimum _ 6,4 C 5,0 C 4,4 C 71 % 1009,3 hPa - - - - 0,0 km/h (0 Bft) 51,16 %
_ Max-Zeit 15:40 12:02 12:50 00:00 18:16 07:38 12:08 07:34 12:08 23:58 00:50
Maximum _ 11,1 C 16,7 C 13,3 C 96 % 1015,5 hPa 0,2 l/m 4 min 2 min 791 W/m 41,8 km/h
O (6 Bft)
100,00 %
Durchschnitt _ 7,9 C 7,6 C 6,8 C 87 % 1012,7 hPa #1,0 l/m #3:02 h #1:08 h 185 W/m 12,3 km/h (3 Bft) 97,26 %
© 2020 W. Hausmann